Observation data for Snyder SSW on 12/09/2018      Previous  Date  Next       Current Mesonet Observations  Soil Data  Daily Summary Page  Observations in Plain Language
KWT1 090600Z 29006KT M01/M01 A3031 RMK A01 T10061013  RH  095%=      5-min Rain = 0
KWT1 090601Z 29006KT M01/M01 A3031 RMK A01 T10061013  RH  095%=      5-min Rain = 0
KWT1 090602Z 29007KT M01/M01 A3031 RMK A01 T10061013  RH  095%=      5-min Rain = 0
KWT1 090603Z 29006KT M01/M01 A3031 RMK A01 T10051013  RH  095%=      5-min Rain = 0
KWT1 090604Z 29006KT M01/M01 A3031 RMK A01 T10051013  RH  094%=      5-min Rain = 0
KWT1 090605Z 30006KT M01/M01 A3031 RMK A01 T10051014  RH  094%=      5-min Rain = 0
KWT1 090606Z 30007KT M01/M01 A3031 RMK A01 T10051014  RH  094%=      5-min Rain = 0
KWT1 090607Z 30007KT M01/M01 A3031 RMK A01 T10051013  RH  094%=      5-min Rain = 0
KWT1 090608Z 30007KT M01/M01 A3031 RMK A01 T10051013  RH  094%=      5-min Rain = 0
KWT1 090609Z 30007KT M01/M01 A3031 RMK A01 T10051013  RH  094%=      5-min Rain = 0
KWT1 090610Z 30007KT M00/M01 A3031 RMK A01 T10041013  RH  094%=      5-min Rain = 0
KWT1 090611Z 30007KT M00/M01 A3031 RMK A01 T10041013  RH  094%=      5-min Rain = 0
KWT1 090612Z 30007KT M00/M01 A3031 RMK A01 T10041013  RH  094%=      5-min Rain = 0
KWT1 090613Z 30006KT M00/M01 A3031 RMK A01 T10041013  RH  094%=      5-min Rain = 0
KWT1 090614Z 30007KT M00/M01 A3031 RMK A01 T10041013  RH  094%=      5-min Rain = 0
KWT1 090615Z 30006KT M00/M01 A3031 RMK A01 T10041013  RH  094%=      5-min Rain = 0
KWT1 090616Z 30006KT M01/M01 A3031 RMK A01 T10051014  RH  094%=      5-min Rain = 0
KWT1 090617Z 30006KT M01/M01 A3031 RMK A01 T10051014  RH  094%=      5-min Rain = 0
KWT1 090618Z 29007KT M01/M01 A3031 RMK A01 T10051014  RH  094%=      5-min Rain = 0
KWT1 090619Z 29006KT M01/M01 A3031 RMK A01 T10051014  RH  094%=      5-min Rain = 0
KWT1 090620Z 29006KT M01/M01 A3031 RMK A01 T10051014  RH  094%=      5-min Rain = 0
KWT1 090621Z 30006KT M01/M01 A3031 RMK A01 T10051013  RH  094%=      5-min Rain = 0
KWT1 090622Z 30007KT M01/M01 A3031 RMK A01 T10051014  RH  094%=      5-min Rain = 0
KWT1 090623Z 30006KT M01/M01 A3031 RMK A01 T10051014  RH  094%=      5-min Rain = 0
KWT1 090624Z 30006KT M01/M01 A3031 RMK A01 T10051014  RH  094%=      5-min Rain = 0
KWT1 090625Z 30007KT M01/M01 A3031 RMK A01 T10051014  RH  094%=      5-min Rain = 0
KWT1 090626Z 30007KT M01/M01 A3031 RMK A01 T10051014  RH  094%=      5-min Rain = 0
KWT1 090627Z 30007KT M01/M01 A3031 RMK A01 T10061014  RH  094%=      5-min Rain = 0
KWT1 090628Z 30007KT M01/M01 A3031 RMK A01 T10061014  RH  094%=      5-min Rain = 0
KWT1 090629Z 30007KT M01/M01 A3031 RMK A01 T10061014  RH  094%=      5-min Rain = 0
KWT1 090630Z 30007KT M01/M01 A3031 RMK A01 T10061014  RH  094%=      5-min Rain = 0
KWT1 090631Z 30007KT M01/M01 A3031 RMK A01 T10061014  RH  094%=      5-min Rain = 0
KWT1 090632Z 30007KT M01/M01 A3031 RMK A01 T10061014  RH  094%=      5-min Rain = 0
KWT1 090633Z 30007KT M01/M01 A3031 RMK A01 T10051014  RH  094%=      5-min Rain = 0
KWT1 090634Z 30007KT M01/M01 A3031 RMK A01 T10051013  RH  094%=      5-min Rain = 0
KWT1 090635Z 30007KT M01/M01 A3031 RMK A01 T10051014  RH  094%=      5-min Rain = 0
KWT1 090636Z 30007KT M01/M01 A3031 RMK A01 T10051013  RH  094%=      5-min Rain = 0
KWT1 090637Z 30007KT M01/M01 A3031 RMK A01 T10051013  RH  094%=      5-min Rain = 0
KWT1 090638Z 30007KT M00/M01 A3031 RMK A01 T10041013  RH  094%=      5-min Rain = 0
KWT1 090639Z 30007KT M01/M01 A3031 RMK A01 T10051013  RH  094%=      5-min Rain = 0
KWT1 090640Z 30007KT M00/M01 A3031 RMK A01 T10041013  RH  094%=      5-min Rain = 0
KWT1 090641Z 30007KT M00/M01 A3031 RMK A01 T10041013  RH  094%=      5-min Rain = 0
KWT1 090642Z 30007KT M00/M01 A3031 RMK A01 T10041013  RH  094%=      5-min Rain = 0
KWT1 090643Z 30007KT M00/M01 A3031 RMK A01 T10041013  RH  094%=      5-min Rain = 0
KWT1 090644Z 31007KT M00/M01 A3031 RMK A01 T10041013  RH  094%=      5-min Rain = 0
KWT1 090645Z 30007KT M00/M01 A3031 RMK A01 T10041013  RH  094%=      5-min Rain = 0
KWT1 090646Z 31007KT M00/M01 A3031 RMK A01 T10041013  RH  094%=      5-min Rain = 0
KWT1 090647Z 31007KT M00/M01 A3031 RMK A01 T10041014  RH  093%=      5-min Rain = 0
KWT1 090648Z 31007KT M00/M01 A3031 RMK A01 T10041014  RH  094%=      5-min Rain = 0
KWT1 090649Z 31007KT M01/M01 A3031 RMK A01 T10051014  RH  094%=      5-min Rain = 0
KWT1 090650Z 31007KT M01/M01 A3031 RMK A01 T10051014  RH  094%=      5-min Rain = 0
KWT1 090651Z 31007KT M01/M01 A3031 RMK A01 T10051014  RH  094%=      5-min Rain = 0
KWT1 090652Z 31006KT M01/M01 A3031 RMK A01 T10051014  RH  094%=      5-min Rain = 0
KWT1 090653Z 31007KT M01/M01 A3031 RMK A01 T10061014  RH  094%=      5-min Rain = 0
KWT1 090654Z 31006KT M01/M01 A3031 RMK A01 T10051014  RH  094%=      5-min Rain = 0
KWT1 090655Z 30007KT M01/M01 A3031 RMK A01 T10051014  RH  094%=      5-min Rain = 0
KWT1 090656Z 30006KT M01/M01 A3031 RMK A01 T10051014  RH  094%=      5-min Rain = 0
KWT1 090657Z 30007KT M01/M01 A3031 RMK A01 T10061014  RH  094%=      5-min Rain = 0
KWT1 090658Z 30007KT M01/M02 A3031 RMK A01 T10061015  RH  094%=      5-min Rain = 0
KWT1 090659Z 30007KT M01/M02 A3031 RMK A01 T10061015  RH  094%=      5-min Rain = 0
KWT1 090700Z 30007KT M01/M02 A3031 RMK A01 T10061015  RH  094%=      5-min Rain = 0
KWT1 090701Z 30006KT M01/M02 A3031 RMK A01 T10061015  RH  094%=      5-min Rain = 0
KWT1 090702Z 30007KT M01/M02 A3031 RMK A01 T10061015  RH  094%=      5-min Rain = 0
KWT1 090703Z 30006KT M01/M02 A3031 RMK A01 T10061015  RH  094%=      5-min Rain = 0
KWT1 090704Z 30006KT M01/M01 A3031 RMK A01 T10061014  RH  094%=      5-min Rain = 0
KWT1 090705Z 30006KT M01/M01 A3031 RMK A01 T10061014  RH  094%=      5-min Rain = 0
KWT1 090706Z 30006KT M01/M01 A3031 RMK A01 T10051014  RH  094%=      5-min Rain = 0
KWT1 090707Z 30006KT M01/M01 A3031 RMK A01 T10051014  RH  094%=      5-min Rain = 0
KWT1 090708Z 30006KT M01/M01 A3031 RMK A01 T10051014  RH  094%=      5-min Rain = 0
KWT1 090709Z 30006KT M01/M01 A3031 RMK A01 T10061014  RH  094%=      5-min Rain = 0
KWT1 090710Z 30006KT M01/M01 A3031 RMK A01 T10051014  RH  094%=      5-min Rain = 0
KWT1 090711Z 30006KT M01/M02 A3031 RMK A01 T10061015  RH  094%=      5-min Rain = 0
KWT1 090712Z 30006KT M01/M02 A3031 RMK A01 T10061015  RH  094%=      5-min Rain = 0
KWT1 090713Z 30005KT M01/M02 A3031 RMK A01 T10061015  RH  094%=      5-min Rain = 0
KWT1 090714Z 30005KT M01/M02 A3031 RMK A01 T10061015  RH  094%=      5-min Rain = 0
KWT1 090715Z 30005KT M01/M02 A3031 RMK A01 T10071016  RH  094%=      5-min Rain = 0
KWT1 090716Z 31005KT M01/M02 A3031 RMK A01 T10071016  RH  094%=      5-min Rain = 0
KWT1 090717Z 30005KT M01/M02 A3031 RMK A01 T10071015  RH  094%=      5-min Rain = 0
KWT1 090718Z 30005KT M01/M02 A3031 RMK A01 T10071016  RH  094%=      5-min Rain = 0
KWT1 090719Z 31005KT M01/M02 A3031 RMK A01 T10081016  RH  094%=      5-min Rain = 0
KWT1 090720Z 31005KT M01/M02 A3031 RMK A01 T10081016  RH  094%=      5-min Rain = 0
KWT1 090721Z 30006KT M01/M02 A3031 RMK A01 T10081016  RH  094%=      5-min Rain = 0
KWT1 090722Z 30006KT M01/M02 A3031 RMK A01 T10071016  RH  094%=      5-min Rain = 0
KWT1 090723Z 30005KT M01/M02 A3031 RMK A01 T10081016  RH  094%=      5-min Rain = 0
KWT1 090724Z 30006KT M01/M02 A3031 RMK A01 T10081016  RH  094%=      5-min Rain = 0
KWT1 090725Z 30006KT M01/M02 A3031 RMK A01 T10081016  RH  094%=      5-min Rain = 0
KWT1 090726Z 30006KT M01/M02 A3031 RMK A01 T10091016  RH  094%=      5-min Rain = 0
KWT1 090727Z 30006KT M01/M02 A3031 RMK A01 T10091016  RH  095%=      5-min Rain = 0
KWT1 090728Z 30006KT M01/M02 A303 RMK A01 T10081015  RH  095%=      5-min Rain = 0
KWT1 090729Z 30006KT M01/M02 A303 RMK A01 T10081015  RH  095%=      5-min Rain = 0
KWT1 090730Z 30007KT M01/M02 A303 RMK A01 T10081016  RH  095%=      5-min Rain = 0
KWT1 090731Z 30007KT M01/M02 A303 RMK A01 T10081016  RH  095%=      5-min Rain = 0
KWT1 090732Z 30006KT M01/M02 A303 RMK A01 T10081016  RH  095%=      5-min Rain = 0
KWT1 090733Z 30006KT M01/M02 A303 RMK A01 T10091016  RH  095%=      5-min Rain = 0
KWT1 090734Z 30006KT M01/M02 A303 RMK A01 T10091016  RH  095%=      5-min Rain = 0
KWT1 090735Z 30006KT M01/M02 A303 RMK A01 T10091016  RH  095%=      5-min Rain = 0
KWT1 090736Z 30007KT M01/M02 A303 RMK A01 T10091016  RH  095%=      5-min Rain = 0
KWT1 090737Z 30006KT M01/M02 A303 RMK A01 T10091016  RH  095%=      5-min Rain = 0
KWT1 090738Z 30006KT M01/M02 A303 RMK A01 T10091016  RH  095%=      5-min Rain = 0
KWT1 090739Z 30006KT M01/M02 A303 RMK A01 T10091016  RH  095%=      5-min Rain = 0
KWT1 090740Z 30006KT M01/M02 A303 RMK A01 T10091016  RH  095%=      5-min Rain = 0
KWT1 090741Z 30006KT M01/M02 A303 RMK A01 T10091016  RH  095%=      5-min Rain = 0
KWT1 090742Z 30007KT M01/M02 A303 RMK A01 T10091016  RH  095%=      5-min Rain = 0
KWT1 090743Z 30006KT M01/M02 A303 RMK A01 T10091016  RH  095%=      5-min Rain = 0
KWT1 090744Z 30006KT M01/M02 A303 RMK A01 T10091015  RH  095%=      5-min Rain = 0
KWT1 090745Z 31006KT M01/M02 A303 RMK A01 T10081015  RH  095%=      5-min Rain = 0
KWT1 090746Z 30006KT M01/M02 A303 RMK A01 T10091015  RH  095%=      5-min Rain = 0
KWT1 090747Z 30006KT M01/M02 A303 RMK A01 T10081015  RH  095%=      5-min Rain = 0
KWT1 090748Z 30006KT M01/M02 A303 RMK A01 T10091016  RH  095%=      5-min Rain = 0
KWT1 090749Z 31006KT M01/M02 A303 RMK A01 T10091016  RH  095%=      5-min Rain = 0
KWT1 090750Z 31006KT M01/M02 A303 RMK A01 T10091016  RH  095%=      5-min Rain = 0
KWT1 090751Z 31005KT M01/M02 A303 RMK A01 T10091016  RH  095%=      5-min Rain = 0
KWT1 090752Z 31005KT M01/M02 A303 RMK A01 T10091016  RH  095%=      5-min Rain = 0
KWT1 090753Z 31005KT M01/M02 A303 RMK A01 T10101016  RH  095%=      5-min Rain = 0
KWT1 090754Z 31005KT M01/M02 A303 RMK A01 T10101016  RH  095%=      5-min Rain = 0
KWT1 090755Z 32005KT M01/M02 A303 RMK A01 T10101016  RH  095%=      5-min Rain = 0
KWT1 090756Z 32005KT M01/M02 A303 RMK A01 T10101017  RH  095%=      5-min Rain = 0
KWT1 090757Z 32005KT M01/M02 A303 RMK A01 T10111017  RH  095%=      5-min Rain = 0
KWT1 090758Z 32005KT M01/M02 A303 RMK A01 T10111017  RH  095%=      5-min Rain = 0
KWT1 090759Z 32005KT M01/M02 A303 RMK A01 T10111018  RH  095%=      5-min Rain = 0
KWT1 090800Z 32005KT M01/M02 A303 RMK A01 T10111018  RH  095%=      5-min Rain = 0
KWT1 090801Z 32005KT M01/M02 A303 RMK A01 T10111018  RH  095%=      5-min Rain = 0
KWT1 090802Z 32005KT M01/M02 A303 RMK A01 T10111018  RH  096%=      5-min Rain = 0
KWT1 090803Z 32005KT M01/M02 A303 RMK A01 T10111018  RH  096%=      5-min Rain = 0
KWT1 090804Z 33005KT M01/M02 A303 RMK A01 T10121018  RH  096%=      5-min Rain = 0
KWT1 090805Z 32006KT M01/M02 A303 RMK A01 T10121018  RH  096%=      5-min Rain = 0
KWT1 090806Z 33006KT M01/M02 A303 RMK A01 T10121018  RH  096%=      5-min Rain = 0
KWT1 090807Z 33006KT M01/M02 A303 RMK A01 T10111017  RH  096%=      5-min Rain = 0
KWT1 090808Z 33006KT M01/M02 A303 RMK A01 T10111017  RH  096%=      5-min Rain = 0
KWT1 090809Z 33006KT M01/M02 A303 RMK A01 T10111016  RH  096%=      5-min Rain = 0
KWT1 090810Z 33006KT M01/M02 A303 RMK A01 T10101016  RH  096%=      5-min Rain = 0
KWT1 090811Z 33006KT M01/M02 A303 RMK A01 T10101016  RH  096%=      5-min Rain = 0
KWT1 090812Z 33006KT M01/M02 A303 RMK A01 T10091015  RH  096%=      5-min Rain = 0
KWT1 090813Z 33006KT M01/M02 A303 RMK A01 T10091015  RH  096%=      5-min Rain = 0
KWT1 090814Z 33006KT M01/M02 A303 RMK A01 T10091015  RH  095%=      5-min Rain = 0
KWT1 090815Z 33006KT M01/M02 A303 RMK A01 T10081015  RH  095%=      5-min Rain = 0
KWT1 090816Z 33005KT M01/M02 A303 RMK A01 T10081015  RH  095%=      5-min Rain = 0
KWT1 090817Z 33005KT M01/M02 A303 RMK A01 T10081015  RH  095%=      5-min Rain = 0
KWT1 090818Z 33004KT M01/M02 A303 RMK A01 T10081015  RH  095%=      5-min Rain = 0
KWT1 090819Z 33005KT M01/M02 A303 RMK A01 T10081016  RH  095%=      5-min Rain = 0
KWT1 090820Z 33004KT M01/M02 A303 RMK A01 T10091017  RH  095%=      5-min Rain = 0
KWT1 090821Z 33004KT M01/M02 A303 RMK A01 T10091017  RH  095%=      5-min Rain = 0
KWT1 090822Z 33004KT M01/M02 A3029 RMK A01 T10091017  RH  095%=      5-min Rain = 0
KWT1 090823Z 33004KT M01/M02 A3029 RMK A01 T10101017  RH  095%=      5-min Rain = 0
KWT1 090824Z 33004KT M01/M02 A3029 RMK A01 T10091017  RH  095%=      5-min Rain = 0
KWT1 090825Z 33004KT M01/M02 A3029 RMK A01 T10101017  RH  095%=      5-min Rain = 0
KWT1 090826Z 32004KT M01/M02 A303 RMK A01 T10101017  RH  095%=      5-min Rain = 0
KWT1 090827Z 32004KT M01/M02 A303 RMK A01 T10101017  RH  095%=      5-min Rain = 0
KWT1 090828Z 32004KT M01/M02 A303 RMK A01 T10111018  RH  095%=      5-min Rain = 0
KWT1 090829Z 31005KT M01/M02 A303 RMK A01 T10101018  RH  095%=      5-min Rain = 0
KWT1 090830Z 31005KT M01/M02 A303 RMK A01 T10111019  RH  095%=      5-min Rain = 0
KWT1 090831Z 30004KT M01/M02 A303 RMK A01 T10121019  RH  095%=      5-min Rain = 0
KWT1 090832Z 31004KT M01/M02 A303 RMK A01 T10131020  RH  095%=      5-min Rain = 0
KWT1 090833Z 30005KT M01/M02 A303 RMK A01 T10121020  RH  095%=      5-min Rain = 0
KWT1 090834Z 30005KT M01/M02 A303 RMK A01 T10131020  RH  095%=      5-min Rain = 0
KWT1 090835Z 30005KT M01/M02 A303 RMK A01 T10131019  RH  095%=      5-min Rain = 0
KWT1 090836Z 31005KT M01/M02 A303 RMK A01 T10131019  RH  095%=      5-min Rain = 0
KWT1 090837Z 31005KT M01/M02 A303 RMK A01 T10121019  RH  095%=      5-min Rain = 0
KWT1 090838Z 31005KT M01/M02 A303 RMK A01 T10121018  RH  096%=      5-min Rain = 0
KWT1 090839Z 31005KT M01/M02 A303 RMK A01 T10121018  RH  096%=      5-min Rain = 0
KWT1 090840Z 31005KT M01/M02 A303 RMK A01 T10121018  RH  096%=      5-min Rain = 0
KWT1 090841Z 31005KT M01/M02 A303 RMK A01 T10121018  RH  096%=      5-min Rain = 0
KWT1 090842Z 31005KT M01/M02 A303 RMK A01 T10121018  RH  095%=      5-min Rain = 0
KWT1 090843Z 31005KT M01/M02 A303 RMK A01 T10121018  RH  095%=      5-min Rain = 0
KWT1 090844Z 31005KT M01/M02 A303 RMK A01 T10121019  RH  095%=      5-min Rain = 0
KWT1 090845Z 31005KT M01/M02 A303 RMK A01 T10121019  RH  095%=      5-min Rain = 0
KWT1 090846Z 32005KT M01/M02 A303 RMK A01 T10121019  RH  095%=      5-min Rain = 0
KWT1 090847Z 31005KT M01/M02 A303 RMK A01 T10121018  RH  095%=      5-min Rain = 0
KWT1 090848Z 32005KT M01/M02 A303 RMK A01 T10121018  RH  095%=      5-min Rain = 0
KWT1 090849Z 32005KT M01/M02 A303 RMK A01 T10121019  RH  095%=      5-min Rain = 0
KWT1 090850Z 32005KT M01/M02 A303 RMK A01 T10121019  RH  095%=      5-min Rain = 0
KWT1 090851Z 32006KT M01/M02 A303 RMK A01 T10121019  RH  095%=      5-min Rain = 0
KWT1 090852Z 32006KT M01/M02 A303 RMK A01 T10121019  RH  095%=      5-min Rain = 0
KWT1 090853Z 32006KT M01/M02 A303 RMK A01 T10121019  RH  095%=      5-min Rain = 0
KWT1 090854Z 32006KT M01/M02 A303 RMK A01 T10121018  RH  095%=      5-min Rain = 0
KWT1 090855Z 33007KT M01/M02 A303 RMK A01 T10111017  RH  096%=      5-min Rain = 0
KWT1 090856Z 33007KT M01/M02 A303 RMK A01 T10101017  RH  096%=      5-min Rain = 0
KWT1 090857Z 33007KT M01/M02 A303 RMK A01 T10101017  RH  095%=      5-min Rain = 0
KWT1 090858Z 32006KT M01/M02 A303 RMK A01 T10101017  RH  095%=      5-min Rain = 0
KWT1 090859Z 32006KT M01/M02 A303 RMK A01 T10101016  RH  095%=      5-min Rain = 0
KWT1 090900Z 33006KT M01/M02 A303 RMK A01 T10091016  RH  095%=      5-min Rain = 0
KWT1 090901Z 33006KT M01/M02 A303 RMK A01 T10091017  RH  095%=      5-min Rain = 0
KWT1 090902Z 33006KT M01/M02 A303 RMK A01 T10101017  RH  094%=      5-min Rain = 0
KWT1 090903Z 33006KT M01/M02 A303 RMK A01 T10101018  RH  094%=      5-min Rain = 0
KWT1 090904Z 33006KT M01/M02 A303 RMK A01 T10101018  RH  094%=      5-min Rain = 0
KWT1 090905Z 33005KT M01/M02 A303 RMK A01 T10111019  RH  094%=      5-min Rain = 0
KWT1 090906Z 33005KT M01/M02 A303 RMK A01 T10111019  RH  094%=      5-min Rain = 0
KWT1 090907Z 33005KT M01/M02 A303 RMK A01 T10121020  RH  094%=      5-min Rain = 0
KWT1 090908Z 34005KT M01/M02 A303 RMK A01 T10121020  RH  094%=      5-min Rain = 0
KWT1 090909Z 33005KT M01/M02 A303 RMK A01 T10131021  RH  094%=      5-min Rain = 0
KWT1 090910Z 33005KT M01/M02 A303 RMK A01 T10131021  RH  094%=      5-min Rain = 0
KWT1 090911Z 33005KT M01/M02 A303 RMK A01 T10131021  RH  095%=      5-min Rain = 0
KWT1 090912Z 33005KT M01/M02 A303 RMK A01 T10121020  RH  095%=      5-min Rain = 0
KWT1 090913Z 33004KT M01/M02 A303 RMK A01 T10121020  RH  095%=      5-min Rain = 0
KWT1 090914Z 33004KT M01/M02 A303 RMK A01 T10121019  RH  095%=      5-min Rain = 0
KWT1 090915Z 32004KT M01/M02 A303 RMK A01 T10111019  RH  095%=      5-min Rain = 0
KWT1 090916Z 32004KT M01/M02 A303 RMK A01 T10111019  RH  094%=      5-min Rain = 0
KWT1 090917Z 32004KT M01/M02 A303 RMK A01 T10121020  RH  094%=      5-min Rain = 0
KWT1 090918Z 33005KT M01/M02 A303 RMK A01 T10121020  RH  094%=      5-min Rain = 0
KWT1 090919Z 33004KT M01/M02 A303 RMK A01 T10121020  RH  094%=      5-min Rain = 0
KWT1 090920Z 33005KT M01/M02 A303 RMK A01 T10121019  RH  094%=      5-min Rain = 0
KWT1 090921Z 33004KT M01/M02 A303 RMK A01 T10111019  RH  094%=      5-min Rain = 0
KWT1 090922Z 33004KT M01/M02 A303 RMK A01 T10111020  RH  094%=      5-min Rain = 0
KWT1 090923Z 33004KT M01/M02 A303 RMK A01 T10121020  RH  094%=      5-min Rain = 0
KWT1 090924Z 33004KT M01/M02 A303 RMK A01 T10121020  RH  094%=      5-min Rain = 0
KWT1 090925Z 33004KT M01/M02 A303 RMK A01 T10121021  RH  094%=      5-min Rain = 0
KWT1 090926Z 33004KT M01/M02 A303 RMK A01 T10121021  RH  094%=      5-min Rain = 0
KWT1 090927Z 34004KT M01/M02 A303 RMK A01 T10131021  RH  094%=      5-min Rain = 0
KWT1 090928Z 34004KT M01/M02 A303 RMK A01 T10131021  RH  094%=      5-min Rain = 0
KWT1 090929Z 33004KT M01/M02 A303 RMK A01 T10131021  RH  094%=      5-min Rain = 0
KWT1 090930Z 33004KT M01/M02 A303 RMK A01 T10131021  RH  094%=      5-min Rain = 0
KWT1 090931Z 33004KT M01/M02 A303 RMK A01 T10121020  RH  094%=      5-min Rain = 0
KWT1 090932Z 33004KT M01/M02 A303 RMK A01 T10121020  RH  094%=      5-min Rain = 0
KWT1 090933Z 33004KT M01/M02 A303 RMK A01 T10121020  RH  094%=      5-min Rain = 0
KWT1 090934Z 34005KT M01/M02 A303 RMK A01 T10121020  RH  094%=      5-min Rain = 0
KWT1 090935Z 34005KT M01/M02 A303 RMK A01 T10121021  RH  094%=      5-min Rain = 0
KWT1 090936Z 34005KT M01/M02 A303 RMK A01 T10121021  RH  093%=      5-min Rain = 0
KWT1 090937Z 34005KT M01/M02 A303 RMK A01 T10121022  RH  093%=      5-min Rain = 0
KWT1 090938Z 34005KT M01/M02 A303 RMK A01 T10131023  RH  093%=      5-min Rain = 0
KWT1 090939Z 34006KT M01/M02 A303 RMK A01 T10131023  RH  093%=      5-min Rain = 0
KWT1 090940Z 34006KT M01/M02 A303 RMK A01 T10131022  RH  093%=      5-min Rain = 0
KWT1 090941Z 34005KT M01/M02 A303 RMK A01 T10121022  RH  093%=      5-min Rain = 0
KWT1 090942Z 34005KT M01/M02 A303 RMK A01 T10121021  RH  093%=      5-min Rain = 0
KWT1 090943Z 34006KT M01/M02 A3031 RMK A01 T10121021  RH  093%=      5-min Rain = 0
KWT1 090944Z 33005KT M01/M02 A3031 RMK A01 T10111020  RH  094%=      5-min Rain = 0
KWT1 090945Z 34005KT M01/M02 A3031 RMK A01 T10101020  RH  093%=      5-min Rain = 0
KWT1 090946Z 34005KT M01/M02 A3031 RMK A01 T10101020  RH  093%=      5-min Rain = 0
KWT1 090947Z 33005KT M01/M02 A3031 RMK A01 T10101020  RH  093%=      5-min Rain = 0
KWT1 090948Z 33004KT M01/M02 A3031 RMK A01 T10101020  RH  093%=      5-min Rain = 0
KWT1 090949Z 34005KT M01/M02 A3031 RMK A01 T10101020  RH  093%=      5-min Rain = 0
KWT1 090950Z 33005KT M01/M02 A3031 RMK A01 T10091020  RH  093%=      5-min Rain = 0
KWT1 090951Z 33004KT M01/M02 A3031 RMK A01 T10101020  RH  093%=      5-min Rain = 0
KWT1 090952Z 33004KT M01/M02 A3031 RMK A01 T10101020  RH  093%=      5-min Rain = 0
KWT1 090953Z 33003KT M01/M02 A303 RMK A01 T10101020  RH  092%=      5-min Rain = 0
KWT1 090954Z 32003KT M01/M02 A3031 RMK A01 T10111022  RH  092%=      5-min Rain = 0
KWT1 090955Z 31003KT M01/M02 A3031 RMK A01 T10111022  RH  092%=      5-min Rain = 0
KWT1 090956Z 31003KT M01/M02 A3031 RMK A01 T10111022  RH  093%=      5-min Rain = 0
KWT1 090957Z 31003KT M01/M02 A3031 RMK A01 T10111021  RH  093%=      5-min Rain = 0
KWT1 090958Z 32003KT M01/M02 A3031 RMK A01 T10111021  RH  093%=      5-min Rain = 0
KWT1 090959Z 32003KT M01/M02 A3031 RMK A01 T10111021  RH  093%=      5-min Rain = 0
KWT1 091000Z 31003KT M01/M02 A3031 RMK A01 T10111021  RH  093%=      5-min Rain = 0
KWT1 091001Z 32003KT M01/M02 A3031 RMK A01 T10121022  RH  093%=      5-min Rain = 0
KWT1 091002Z 32003KT M01/M02 A303 RMK A01 T10121022  RH  093%=      5-min Rain = 0
KWT1 091003Z 33003KT M01/M02 A303 RMK A01 T10131023  RH  093%=      5-min Rain = 0
KWT1 091004Z 33003KT M01/M02 A303 RMK A01 T10131022  RH  093%=      5-min Rain = 0
KWT1 091005Z 33004KT M01/M02 A303 RMK A01 T10131022  RH  093%=      5-min Rain = 0
KWT1 091006Z 34003KT M01/M02 A3031 RMK A01 T10131022  RH  094%=      5-min Rain = 0
KWT1 091007Z 34003KT M01/M02 A3031 RMK A01 T10131022  RH  094%=      5-min Rain = 0
KWT1 091008Z 34003KT M01/M02 A3031 RMK A01 T10141023  RH  094%=      5-min Rain = 0
KWT1 091009Z 34003KT M01/M02 A3031 RMK A01 T10141023  RH  094%=      5-min Rain = 0
KWT1 091010Z 34004KT M01/M02 A3031 RMK A01 T10141023  RH  094%=      5-min Rain = 0
KWT1 091011Z 34003KT M01/M02 A3031 RMK A01 T10141023  RH  094%=      5-min Rain = 0
KWT1 091012Z 34004KT M01/M02 A3031 RMK A01 T10141023  RH  094%=      5-min Rain = 0
KWT1 091013Z 34004KT M01/M02 A3031 RMK A01 T10141023  RH  094%=      5-min Rain = 0
KWT1 091014Z 34004KT M01/M02 A3031 RMK A01 T10141023  RH  094%=      5-min Rain = 0
KWT1 091015Z 34004KT M02/M02 A3031 RMK A01 T10151023  RH  094%=      5-min Rain = 0
KWT1 091016Z 34004KT M02/M02 A3031 RMK A01 T10151023  RH  094%=      5-min Rain = 0
KWT1 091017Z 34004KT M02/M02 A3031 RMK A01 T10151023  RH  094%=      5-min Rain = 0
KWT1 091018Z 34004KT M02/M02 A3031 RMK A01 T10151024  RH  094%=      5-min Rain = 0
KWT1 091019Z 34004KT M02/M02 A3031 RMK A01 T10161024  RH  094%=      5-min Rain = 0
KWT1 091020Z 34004KT M02/M02 A3031 RMK A01 T10161024  RH  094%=      5-min Rain = 0
KWT1 091021Z 34004KT M02/M02 A3031 RMK A01 T10161024  RH  094%=      5-min Rain = 0
KWT1 091022Z 34004KT M02/M03 A3031 RMK A01 T10171025  RH  094%=      5-min Rain = 0
KWT1 091023Z 34004KT M02/M03 A3031 RMK A01 T10161025  RH  094%=      5-min Rain = 0
KWT1 091024Z 34004KT M02/M02 A3031 RMK A01 T10161024  RH  094%=      5-min Rain = 0
KWT1 091025Z 34004KT M02/M02 A3031 RMK A01 T10161024  RH  094%=      5-min Rain = 0
KWT1 091026Z 34005KT M02/M02 A3031 RMK A01 T10161024  RH  094%=      5-min Rain = 0
KWT1 091027Z 34005KT M02/M02 A3031 RMK A01 T10161024  RH  094%=      5-min Rain = 0
KWT1 091028Z 34005KT M02/M02 A3031 RMK A01 T10161024  RH  094%=      5-min Rain = 0
KWT1 091029Z 34005KT M02/M02 A3031 RMK A01 T10161024  RH  094%=      5-min Rain = 0
KWT1 091030Z 34005KT M02/M02 A3031 RMK A01 T10161024  RH  094%=      5-min Rain = 0
KWT1 091031Z 34006KT M02/M02 A3031 RMK A01 T10161024  RH  094%=      5-min Rain = 0
KWT1 091032Z 34006KT M02/M02 A3031 RMK A01 T10161024  RH  094%=      5-min Rain = 0
KWT1 091033Z 34006KT M02/M03 A3031 RMK A01 T10161025  RH  094%=      5-min Rain = 0
KWT1 091034Z 34006KT M02/M03 A3031 RMK A01 T10161025  RH  094%=      5-min Rain = 0
KWT1 091035Z 34006KT M02/M02 A3031 RMK A01 T10161024  RH  094%=      5-min Rain = 0
KWT1 091036Z 34006KT M02/M03 A3031 RMK A01 T10161025  RH  094%=      5-min Rain = 0
KWT1 091037Z 34006KT M02/M03 A3031 RMK A01 T10171025  RH  094%=      5-min Rain = 0
KWT1 091038Z 34006KT M02/M03 A3031 RMK A01 T10171025  RH  094%=      5-min Rain = 0
KWT1 091039Z 34006KT M02/M03 A3031 RMK A01 T10171025  RH  094%=      5-min Rain = 0
KWT1 091040Z 34005KT M02/M02 A3031 RMK A01 T10161024  RH  095%=      5-min Rain = 0
KWT1 091041Z 34005KT M02/M02 A3031 RMK A01 T10161024  RH  095%=      5-min Rain = 0
KWT1 091042Z 34005KT M02/M02 A3031 RMK A01 T10161023  RH  095%=      5-min Rain = 0
KWT1 091043Z 34005KT M02/M02 A3031 RMK A01 T10151023  RH  094%=      5-min Rain = 0
KWT1 091044Z 34005KT M02/M02 A3031 RMK A01 T10151023  RH  094%=      5-min Rain = 0
KWT1 091045Z 34005KT M02/M02 A3031 RMK A01 T10151023  RH  094%=      5-min Rain = 0
KWT1 091046Z 34005KT M02/M02 A3031 RMK A01 T10151024  RH  094%=      5-min Rain = 0
KWT1 091047Z 34006KT M02/M02 A3031 RMK A01 T10151024  RH  094%=      5-min Rain = 0
KWT1 091048Z 34006KT M02/M02 A3031 RMK A01 T10151024  RH  094%=      5-min Rain = 0
KWT1 091049Z 34006KT M02/M02 A3031 RMK A01 T10151024  RH  094%=      5-min Rain = 0
KWT1 091050Z 34006KT M02/M02 A3031 RMK A01 T10151023  RH  094%=      5-min Rain = 0
KWT1 091051Z 34006KT M02/M02 A3031 RMK A01 T10151024  RH  094%=      5-min Rain = 0
KWT1 091052Z 34006KT M02/M02 A3031 RMK A01 T10151024  RH  093%=      5-min Rain = 0
KWT1 091053Z 34007KT M02/M03 A3031 RMK A01 T10151025  RH  093%=      5-min Rain = 0
KWT1 091054Z 34006KT M02/M02 A3031 RMK A01 T10151024  RH  093%=      5-min Rain = 0
KWT1 091055Z 34006KT M01/M02 A3031 RMK A01 T10141024  RH  093%=      5-min Rain = 0
KWT1 091056Z 34006KT M02/M02 A3031 RMK A01 T10151024  RH  093%=      5-min Rain = 0
KWT1 091057Z 34007KT M02/M02 A3031 RMK A01 T10151024  RH  093%=      5-min Rain = 0
KWT1 091058Z 34006KT M02/M02 A3031 RMK A01 T10151024  RH  093%=      5-min Rain = 0
KWT1 091059Z 34006KT M01/M02 A3031 RMK A01 T10141024  RH  093%=      5-min Rain = 0
KWT1 091100Z 35006KT M01/M02 A3031 RMK A01 T10141024  RH  093%=      5-min Rain = 0
KWT1 091101Z 35006KT M01/M02 A3032 RMK A01 T10141024  RH  093%=      5-min Rain = 0
KWT1 091102Z 35006KT M02/M03 A3032 RMK A01 T10151025  RH  093%=      5-min Rain = 0
KWT1 091103Z 35006KT M02/M03 A3031 RMK A01 T10151025  RH  093%=      5-min Rain = 0
KWT1 091104Z 35006KT M02/M03 A3031 RMK A01 T10151025  RH  093%=      5-min Rain = 0
KWT1 091105Z 35005KT M02/M03 A3032 RMK A01 T10161025  RH  093%=      5-min Rain = 0
KWT1 091106Z 35005KT M02/M03 A3032 RMK A01 T10161025  RH  093%=      5-min Rain = 0
KWT1 091107Z 35005KT M02/M03 A3032 RMK A01 T10171026  RH  094%=      5-min Rain = 0
KWT1 091108Z 34006KT M02/M03 A3032 RMK A01 T10171026  RH  094%=      5-min Rain = 0
KWT1 091109Z 34005KT M02/M03 A3032 RMK A01 T10171026  RH  094%=      5-min Rain = 0
KWT1 091110Z 34005KT M02/M03 A3032 RMK A01 T10181026  RH  094%=      5-min Rain = 0
KWT1 091111Z 34005KT M02/M03 A3032 RMK A01 T10181026  RH  094%=      5-min Rain = 0
KWT1 091112Z 34005KT M02/M03 A3032 RMK A01 T10181026  RH  094%=      5-min Rain = 0
KWT1 091113Z 34005KT M02/M03 A3032 RMK A01 T10181026  RH  094%=      5-min Rain = 0
KWT1 091114Z 34005KT M02/M03 A3032 RMK A01 T10181026  RH  094%=      5-min Rain = 0
KWT1 091115Z 34005KT M02/M03 A3032 RMK A01 T10181026  RH  094%=      5-min Rain = 0
KWT1 091116Z 34005KT M02/M03 A3032 RMK A01 T10181026  RH  094%=      5-min Rain = 0
KWT1 091117Z 34005KT M02/M03 A3032 RMK A01 T10181026  RH  094%=      5-min Rain = 0
KWT1 091118Z 34006KT M02/M03 A3032 RMK A01 T10181026  RH  094%=      5-min Rain = 0
KWT1 091119Z 34005KT M02/M03 A3032 RMK A01 T10171025  RH  094%=      5-min Rain = 0
KWT1 091120Z 34005KT M02/M03 A3032 RMK A01 T10181026  RH  094%=      5-min Rain = 0
KWT1 091121Z 34005KT M02/M03 A3032 RMK A01 T10181026  RH  094%=      5-min Rain = 0
KWT1 091122Z 34005KT M02/M03 A3032 RMK A01 T10181026  RH  094%=      5-min Rain = 0
KWT1 091123Z 34005KT M02/M03 A3032 RMK A01 T10181027  RH  094%=      5-min Rain = 0
KWT1 091124Z 34004KT M02/M03 A3032 RMK A01 T10181027  RH  094%=      5-min Rain = 0
KWT1 091125Z 33004KT M02/M03 A3032 RMK A01 T10181026  RH  094%=      5-min Rain = 0
KWT1 091126Z 33004KT M02/M03 A3032 RMK A01 T10181026  RH  094%=      5-min Rain = 0
KWT1 091127Z 33004KT M02/M03 A3032 RMK A01 T10181027  RH  094%=      5-min Rain = 0
KWT1 091128Z 33004KT M02/M03 A3032 RMK A01 T10181026  RH  094%=      5-min Rain = 0
KWT1 091129Z 33004KT M02/M03 A3032 RMK A01 T10181026  RH  094%=      5-min Rain = 0
KWT1 091130Z 33004KT M02/M03 A3032 RMK A01 T10181027  RH  094%=      5-min Rain = 0
KWT1 091131Z 33004KT M02/M03 A3032 RMK A01 T10181026  RH  094%=      5-min Rain = 0
KWT1 091132Z 33004KT M02/M03 A3032 RMK A01 T10181027  RH  094%=      5-min Rain = 0
KWT1 091133Z 33004KT M02/M03 A3033 RMK A01 T10181027  RH  094%=      5-min Rain = 0
KWT1 091134Z 33004KT M02/M03 A3033 RMK A01 T10191027  RH  094%=      5-min Rain = 0
KWT1 091135Z 33004KT M02/M03 A3033 RMK A01 T10191028  RH  094%=      5-min Rain = 0
KWT1 091136Z 33004KT M02/M03 A3033 RMK A01 T10191028  RH  094%=      5-min Rain = 0
KWT1 091137Z 33004KT M02/M03 A3033 RMK A01 T10191028  RH  094%=      5-min Rain = 0
KWT1 091138Z 33004KT M02/M03 A3033 RMK A01 T10191028  RH  094%=      5-min Rain = 0
KWT1 091139Z 34004KT M02/M03 A3033 RMK A01 T10201028  RH  094%=      5-min Rain = 0
KWT1 091140Z 34004KT M02/M03 A3033 RMK A01 T10201028  RH  094%=      5-min Rain = 0
KWT1 091141Z 34004KT M02/M03 A3033 RMK A01 T10191028  RH  094%=      5-min Rain = 0
KWT1 091142Z 35004KT M02/M03 A3033 RMK A01 T10201029  RH  094%=      5-min Rain = 0
KWT1 091143Z 34004KT M02/M03 A3033 RMK A01 T10211030  RH  094%=      5-min Rain = 0
KWT1 091144Z 35003KT M02/M03 A3033 RMK A01 T10211031  RH  093%=      5-min Rain = 0
KWT1 091145Z 36003KT M02/M03 A3033 RMK A01 T10211030  RH  094%=      5-min Rain = 0
KWT1 091146Z 00003KT M02/M03 A3033 RMK A01 T10211030  RH  094%=      5-min Rain = 0
KWT1 091147Z 00004KT M02/M03 A3033 RMK A01 T10211030  RH  094%=      5-min Rain = 0
KWT1 091148Z 01004KT M02/M03 A3033 RMK A01 T10211029  RH  094%=      5-min Rain = 0
KWT1 091149Z 01004KT M02/M03 A3033 RMK A01 T10201029  RH  094%=      5-min Rain = 0
KWT1 091150Z 01004KT M02/M03 A3033 RMK A01 T10201029  RH  094%=      5-min Rain = 0
KWT1 091151Z 01004KT M02/M03 A3033 RMK A01 T10201029  RH  094%=      5-min Rain = 0
KWT1 091152Z 01004KT M02/M03 A3033 RMK A01 T10201029  RH  094%=      5-min Rain = 0
KWT1 091153Z 01005KT M02/M03 A3033 RMK A01 T10201029  RH  093%=      5-min Rain = 0
KWT1 091154Z 01005KT M02/M03 A3033 RMK A01 T10201030  RH  093%=      5-min Rain = 0
KWT1 091155Z 01005KT M02/M03 A3033 RMK A01 T10201030  RH  093%=      5-min Rain = 0
KWT1 091156Z 02005KT M02/M03 A3033 RMK A01 T10211030  RH  093%=      5-min Rain = 0
KWT1 091157Z 01005KT M02/M03 A3033 RMK A01 T10211030  RH  093%=      5-min Rain = 0
KWT1 091158Z 01005KT M02/M03 A3033 RMK A01 T10211030  RH  093%=      5-min Rain = 0
KWT1 091159Z 01005KT M02/M03 A3033 RMK A01 T10201030  RH  093%=      5-min Rain = 0
KWT1 091200Z 02005KT M02/M03 A3033 RMK A01 T10211031  RH  093%=      5-min Rain = 0
KWT1 091201Z 02005KT M02/M03 A3033 RMK A01 T10211031  RH  093%=      5-min Rain = 0
KWT1 091202Z 02004KT M02/M03 A3033 RMK A01 T10211032  RH  092%=      5-min Rain = 0
KWT1 091203Z 02004KT M02/M03 A3033 RMK A01 T10211032  RH  092%=      5-min Rain = 0
KWT1 091204Z 02004KT M02/M03 A3033 RMK A01 T10211032  RH  092%=      5-min Rain = 0
KWT1 091205Z 02004KT M02/M03 A3033 RMK A01 T10211032  RH  092%=      5-min Rain = 0
KWT1 091206Z 02003KT M02/M03 A3033 RMK A01 T10211032  RH  092%=      5-min Rain = 0
KWT1 091207Z 01004KT M02/M03 A3033 RMK A01 T10221033  RH  092%=      5-min Rain = 0
KWT1 091208Z 01004KT M02/M03 A3033 RMK A01 T10211032  RH  092%=      5-min Rain = 0
KWT1 091209Z 01004KT M02/M03 A3033 RMK A01 T10211032  RH  092%=      5-min Rain = 0
KWT1 091210Z 00004KT M02/M03 A3033 RMK A01 T10211032  RH  092%=      5-min Rain = 0
KWT1 091211Z 00004KT M02/M03 A3033 RMK A01 T10201032  RH  092%=      5-min Rain = 0
KWT1 091212Z 36004KT M02/M03 A3033 RMK A01 T10201032  RH  091%=      5-min Rain = 0
KWT1 091213Z 36004KT M02/M03 A3033 RMK A01 T10201033  RH  091%=      5-min Rain = 0
KWT1 091214Z 36004KT M02/M03 A3033 RMK A01 T10201033  RH  091%=      5-min Rain = 0
KWT1 091215Z 36004KT M02/M03 A3033 RMK A01 T10211034  RH  091%=      5-min Rain = 0
KWT1 091216Z 36004KT M02/M03 A3033 RMK A01 T10211034  RH  091%=      5-min Rain = 0
KWT1 091217Z 35004KT M02/M04 A3033 RMK A01 T10211035  RH  091%=      5-min Rain = 0
KWT1 091218Z 36004KT M02/M04 A3033 RMK A01 T10211035  RH  091%=      5-min Rain = 0
KWT1 091219Z 35004KT M02/M04 A3033 RMK A01 T10211035  RH  091%=      5-min Rain = 0
KWT1 091220Z 35004KT M02/M03 A3033 RMK A01 T10211034  RH  091%=      5-min Rain = 0
KWT1 091221Z 35004KT M02/M04 A3034 RMK A01 T10211035  RH  091%=      5-min Rain = 0
KWT1 091222Z 35003KT M02/M04 A3034 RMK A01 T10211035  RH  090%=      5-min Rain = 0
KWT1 091223Z 35003KT M02/M04 A3034 RMK A01 T10211035  RH  090%=      5-min Rain = 0
KWT1 091224Z 35003KT M02/M04 A3034 RMK A01 T10211035  RH  090%=      5-min Rain = 0
KWT1 091225Z 34003KT M02/M04 A3034 RMK A01 T10211035  RH  090%=      5-min Rain = 0
KWT1 091226Z 34003KT M02/M04 A3034 RMK A01 T10211035  RH  090%=      5-min Rain = 0
KWT1 091227Z 34004KT M02/M04 A3034 RMK A01 T10211035  RH  091%=      5-min Rain = 0
KWT1 091228Z 34003KT M02/M04 A3034 RMK A01 T10211035  RH  091%=      5-min Rain = 0
KWT1 091229Z 34003KT M02/M04 A3034 RMK A01 T10221035  RH  091%=      5-min Rain = 0
KWT1 091230Z 35003KT M02/M04 A3034 RMK A01 T10221035  RH  091%=      5-min Rain = 0
KWT1 091231Z 34003KT M02/M04 A3034 RMK A01 T10221035  RH  091%=      5-min Rain = 0
KWT1 091232Z 34003KT M02/M04 A3034 RMK A01 T10211035  RH  090%=      5-min Rain = 0
KWT1 091233Z 34003KT M02/M04 A3034 RMK A01 T10211035  RH  090%=      5-min Rain = 0
KWT1 091234Z 34003KT M02/M04 A3034 RMK A01 T10211035  RH  090%=      5-min Rain = 0
KWT1 091235Z 33003KT M02/M04 A3034 RMK A01 T10211035  RH  090%=      5-min Rain = 0
KWT1 091236Z 33003KT M02/M04 A3034 RMK A01 T10211035  RH  090%=      5-min Rain = 0
KWT1 091237Z 33003KT M02/M04 A3034 RMK A01 T10211036  RH  090%=      5-min Rain = 0
KWT1 091238Z 33003KT M02/M04 A3034 RMK A01 T10211036  RH  090%=      5-min Rain = 0
KWT1 091239Z 33003KT M02/M04 A3034 RMK A01 T10211036  RH  090%=      5-min Rain = 0
KWT1 091240Z 34004KT M02/M04 A3034 RMK A01 T10211036  RH  089%=      5-min Rain = 0
KWT1 091241Z 35003KT M02/M04 A3034 RMK A01 T10211037  RH  089%=      5-min Rain = 0
KWT1 091242Z 35003KT M02/M04 A3034 RMK A01 T10211038  RH  089%=      5-min Rain = 0
KWT1 091243Z 35003KT M02/M04 A3034 RMK A01 T10211038  RH  088%=      5-min Rain = 0
KWT1 091244Z 35003KT M02/M04 A3034 RMK A01 T10201039  RH  087%=      5-min Rain = 0
KWT1 091245Z 35003KT M02/M04 A3034 RMK A01 T10211040  RH  087%=      5-min Rain = 0
KWT1 091246Z 35003KT M02/M04 A3035 RMK A01 T10211040  RH  087%=      5-min Rain = 0
KWT1 091247Z 35003KT M02/M04 A3035 RMK A01 T10201040  RH  087%=      5-min Rain = 0
KWT1 091248Z 34003KT M02/M04 A3035 RMK A01 T10201040  RH  087%=      5-min Rain = 0
KWT1 091249Z 34003KT M02/M04 A3035 RMK A01 T10201040  RH  087%=      5-min Rain = 0
KWT1 091250Z 34003KT M02/M04 A3035 RMK A01 T10201040  RH  087%=      5-min Rain = 0
KWT1 091251Z 35003KT M02/M04 A3035 RMK A01 T10201040  RH  087%=      5-min Rain = 0
KWT1 091252Z 34003KT M02/M04 A3035 RMK A01 T10211040  RH  087%=      5-min Rain = 0
KWT1 091253Z 34003KT M02/M04 A3035 RMK A01 T10211040  RH  087%=      5-min Rain = 0
KWT1 091254Z 34004KT M02/M04 A3035 RMK A01 T10211040  RH  087%=      5-min Rain = 0
KWT1 091255Z 34004KT M02/M04 A3035 RMK A01 T10201040  RH  087%=      5-min Rain = 0
KWT1 091256Z 35004KT M02/M04 A3035 RMK A01 T10201039  RH  087%=      5-min Rain = 0
KWT1 091257Z 34004KT M02/M04 A3035 RMK A01 T10201039  RH  087%=      5-min Rain = 0
KWT1 091258Z 35004KT M02/M04 A3035 RMK A01 T10201039  RH  087%=      5-min Rain = 0
KWT1 091259Z 35004KT M02/M04 A3035 RMK A01 T10211040  RH  087%=      5-min Rain = 0
KWT1 091300Z 35004KT M02/M04 A3035 RMK A01 T10211040  RH  087%=      5-min Rain = 0
KWT1 091301Z 35004KT M02/M04 A3035 RMK A01 T10211039  RH  087%=      5-min Rain = 0
KWT1 091302Z 35004KT M02/M04 A3035 RMK A01 T10221040  RH  087%=      5-min Rain = 0
KWT1 091303Z 35004KT M02/M04 A3035 RMK A01 T10221039  RH  088%=      5-min Rain = 0
KWT1 091304Z 35004KT M02/M04 A3035 RMK A01 T10211039  RH  088%=      5-min Rain = 0
KWT1 091305Z 35004KT M02/M04 A3035 RMK A01 T10221039  RH  088%=      5-min Rain = 0
KWT1 091306Z 35004KT M02/M04 A3035 RMK A01 T10211039  RH  088%=      5-min Rain = 0
KWT1 091307Z 36005KT M02/M04 A3035 RMK A01 T10221040  RH  088%=      5-min Rain = 0
KWT1 091308Z 36004KT M02/M04 A3035 RMK A01 T10221039  RH  088%=      5-min Rain = 0
KWT1 091309Z 36004KT M02/M04 A3035 RMK A01 T10221039  RH  088%=      5-min Rain = 0
KWT1 091310Z 36005KT M02/M04 A3035 RMK A01 T10231040  RH  088%=      5-min Rain = 0
KWT1 091311Z 36005KT M02/M04 A3035 RMK A01 T10221039  RH  088%=      5-min Rain = 0
KWT1 091312Z 36005KT M02/M04 A3035 RMK A01 T10221040  RH  088%=      5-min Rain = 0
KWT1 091313Z 36005KT M02/M04 A3035 RMK A01 T10221040  RH  088%=      5-min Rain = 0
KWT1 091314Z 36005KT M02/M04 A3035 RMK A01 T10231040  RH  088%=      5-min Rain = 0
KWT1 091315Z 00004KT M02/M04 A3035 RMK A01 T10231041  RH  088%=      5-min Rain = 0
KWT1 091316Z 00005KT M02/M04 A3036 RMK A01 T10241041  RH  088%=      5-min Rain = 0
KWT1 091317Z 36005KT M02/M04 A3036 RMK A01 T10241041  RH  088%=      5-min Rain = 0
KWT1 091318Z 36004KT M02/M04 A3036 RMK A01 T10241041  RH  088%=      5-min Rain = 0
KWT1 091319Z 00005KT M03/M04 A3036 RMK A01 T10251041  RH  088%=      5-min Rain = 0
KWT1 091320Z 00005KT M03/M04 A3036 RMK A01 T10251041  RH  088%=      5-min Rain = 0
KWT1 091321Z 00005KT M03/M04 A3036 RMK A01 T10251041  RH  088%=      5-min Rain = 0
KWT1 091322Z 00005KT M03/M04 A3036 RMK A01 T10251042  RH  088%=      5-min Rain = 0
KWT1 091323Z 00005KT M03/M04 A3036 RMK A01 T10251042  RH  088%=      5-min Rain = 0
KWT1 091324Z 00005KT M03/M04 A3036 RMK A01 T10261042  RH  088%=      5-min Rain = 0
KWT1 091325Z 00005KT M03/M04 A3036 RMK A01 T10251042  RH  089%=      5-min Rain = 0
KWT1 091326Z 00005KT M03/M04 A3036 RMK A01 T10261042  RH  089%=      5-min Rain = 0
KWT1 091327Z 00005KT M03/M04 A3036 RMK A01 T10261042  RH  089%=      5-min Rain = 0
KWT1 091328Z 00005KT M03/M04 A3036 RMK A01 T10271043  RH  089%=      5-min Rain = 0
KWT1 091329Z 00005KT M03/M04 A3036 RMK A01 T10271042  RH  089%=      5-min Rain = 0
KWT1 091330Z 00005KT M03/M04 A3036 RMK A01 T10271043  RH  089%=      5-min Rain = 0
KWT1 091331Z 00005KT M03/M04 A3036 RMK A01 T10271042  RH  089%=      5-min Rain = 0
KWT1 091332Z 00004KT M03/M04 A3036 RMK A01 T10271042  RH  089%=      5-min Rain = 0
KWT1 091333Z 00004KT M03/M04 A3036 RMK A01 T10271042  RH  089%=      5-min Rain = 0
KWT1 091334Z 00004KT M03/M04 A3036 RMK A01 T10271042  RH  089%=      5-min Rain = 0
KWT1 091335Z 00004KT M03/M04 A3036 RMK A01 T10271043  RH  089%=      5-min Rain = 0
KWT1 091336Z 00004KT M03/M04 A3036 RMK A01 T10271042  RH  089%=      5-min Rain = 0
KWT1 091337Z 01004KT M03/M04 A3036 RMK A01 T10271042  RH  089%=      5-min Rain = 0
KWT1 091338Z 00004KT M03/M04 A3036 RMK A01 T10271042  RH  089%=      5-min Rain = 0
KWT1 091339Z 00004KT M03/M04 A3036 RMK A01 T10271042  RH  089%=      5-min Rain = 0
KWT1 091340Z 00004KT M03/M04 A3036 RMK A01 T10261042  RH  089%=      5-min Rain = 0
KWT1 091341Z 00004KT M03/M04 A3036 RMK A01 T10261042  RH  089%=      5-min Rain = 0
KWT1 091342Z 00004KT M03/M04 A3036 RMK A01 T10261043  RH  089%=      5-min Rain = 0
KWT1 091343Z 00004KT M03/M04 A3036 RMK A01 T10261042  RH  088%=      5-min Rain = 0
KWT1 091344Z 00005KT M03/M04 A3036 RMK A01 T10261042  RH  088%=      5-min Rain = 0
KWT1 091345Z 00005KT M03/M04 A3036 RMK A01 T10261043  RH  088%=      5-min Rain = 0
KWT1 091346Z 00005KT M03/M04 A3036 RMK A01 T10261043  RH  088%=      5-min Rain = 0
KWT1 091347Z 36005KT M03/M04 A3036 RMK A01 T10271043  RH  088%=      5-min Rain = 0
KWT1 091348Z 36005KT M03/M04 A3036 RMK A01 T10271044  RH  088%=      5-min Rain = 0
KWT1 091349Z 36004KT M03/M04 A3036 RMK A01 T10271044  RH  088%=      5-min Rain = 0
KWT1 091350Z 00004KT M03/M04 A3036 RMK A01 T10261043  RH  088%=      5-min Rain = 0
KWT1 091351Z 36004KT M03/M04 A3036 RMK A01 T10261043  RH  088%=      5-min Rain = 0
KWT1 091352Z 00004KT M03/M04 A3036 RMK A01 T10261043  RH  088%=      5-min Rain = 0
KWT1 091353Z 00004KT M03/M04 A3036 RMK A01 T10261043  RH  088%=      5-min Rain = 0
KWT1 091354Z 00004KT M03/M04 A3036 RMK A01 T10271043  RH  088%=      5-min Rain = 0
KWT1 091355Z 00004KT M03/M04 A3036 RMK A01 T10261043  RH  088%=      5-min Rain = 0
KWT1 091356Z 00004KT M03/M04 A3036 RMK A01 T10261043  RH  088%=      5-min Rain = 0
KWT1 091357Z 00004KT M03/M04 A3037 RMK A01 T10251042  RH  088%=      5-min Rain = 0
KWT1 091358Z 36004KT M03/M04 A3037 RMK A01 T10251042  RH  088%=      5-min Rain = 0
KWT1 091359Z 35003KT M03/M04 A3037 RMK A01 T10251042  RH  088%=      5-min Rain = 0
KWT1 091400Z 35003KT M03/M04 A3037 RMK A01 T10251042  RH  088%=      5-min Rain = 0
KWT1 091401Z 35003KT M03/M04 A3037 RMK A01 T10251041  RH  088%=      5-min Rain = 0
KWT1 091402Z 35003KT M02/M04 A3037 RMK A01 T10241041  RH  088%=      5-min Rain = 0
KWT1 091403Z 35003KT M02/M04 A3037 RMK A01 T10241041  RH  088%=      5-min Rain = 0
KWT1 091404Z 35003KT M02/M04 A3037 RMK A01 T10241041  RH  088%=      5-min Rain = 0
KWT1 091405Z 35003KT M02/M04 A3037 RMK A01 T10231040  RH  088%=      5-min Rain = 0
KWT1 091406Z 35003KT M02/M04 A3037 RMK A01 T10231040  RH  088%=      5-min Rain = 0
KWT1 091407Z 34003KT M02/M04 A3037 RMK A01 T10231040  RH  088%=      5-min Rain = 0
KWT1 091408Z 35003KT M02/M04 A3037 RMK A01 T10221040  RH  088%=      5-min Rain = 0
KWT1 091409Z 35003KT M02/M04 A3037 RMK A01 T10221040  RH  088%=      5-min Rain = 0
KWT1 091410Z 35003KT M02/M04 A3037 RMK A01 T10221039  RH  088%=      5-min Rain = 0
KWT1 091411Z 35003KT M02/M04 A3037 RMK A01 T10211038  RH  088%=      5-min Rain = 0
KWT1 091412Z 36003KT M02/M04 A3037 RMK A01 T10201038  RH  088%=      5-min Rain = 0
KWT1 091413Z 35003KT M02/M04 A3037 RMK A01 T10201038  RH  087%=      5-min Rain = 0
KWT1 091414Z 36003KT M02/M04 A3037 RMK A01 T10201038  RH  087%=      5-min Rain = 0
KWT1 091415Z 36003KT M02/M04 A3037 RMK A01 T10191038  RH  087%=      5-min Rain = 0
KWT1 091416Z 36003KT M02/M04 A3037 RMK A01 T10181038  RH  086%=      5-min Rain = 0
KWT1 091417Z 36003KT M02/M04 A3037 RMK A01 T10171039  RH  085%=      5-min Rain = 0
KWT1 091418Z 36004KT M02/M04 A3037 RMK A01 T10171040  RH  084%=      5-min Rain = 0
KWT1 091419Z 36004KT M02/M04 A3037 RMK A01 T10161040  RH  084%=      5-min Rain = 0
KWT1 091420Z 36003KT M02/M04 A3037 RMK A01 T10151040  RH  083%=      5-min Rain = 0
KWT1 091421Z 36003KT M02/M04 A3037 RMK A01 T10151041  RH  083%=      5-min Rain = 0
KWT1 091422Z 36003KT M01/M04 A3037 RMK A01 T10141040  RH  083%=      5-min Rain = 0
KWT1 091423Z 36003KT M01/M04 A3037 RMK A01 T10141040  RH  082%=      5-min Rain = 0
KWT1 091424Z 36003KT M01/M04 A3037 RMK A01 T10141040  RH  082%=      5-min Rain = 0
KWT1 091425Z 36004KT M01/M04 A3037 RMK A01 T10131040  RH  082%=      5-min Rain = 0
KWT1 091426Z 36003KT M01/M04 A3037 RMK A01 T10131040  RH  082%=      5-min Rain = 0
KWT1 091427Z 36004KT M01/M04 A3037 RMK A01 T10131040  RH  082%=      5-min Rain = 0
KWT1 091428Z 36004KT M01/M04 A3037 RMK A01 T10121040  RH  082%=      5-min Rain = 0
KWT1 091429Z 36004KT M01/M04 A3037 RMK A01 T10121039  RH  082%=      5-min Rain = 0
KWT1 091430Z 36003KT M01/M04 A3037 RMK A01 T10111039  RH  082%=      5-min Rain = 0
KWT1 091431Z 35004KT M01/M04 A3037 RMK A01 T10111037  RH  082%=      5-min Rain = 0
KWT1 091432Z 35003KT M01/M04 A3037 RMK A01 T10111037  RH  082%=      5-min Rain = 0
KWT1 091433Z 36004KT M01/M04 A3038 RMK A01 T10101037  RH  082%=      5-min Rain = 0
KWT1 091434Z 35004KT M01/M04 A3038 RMK A01 T10101037  RH  082%=      5-min Rain = 0
KWT1 091435Z 35005KT M01/M04 A3038 RMK A01 T10091037  RH  081%=      5-min Rain = 0
KWT1 091436Z 35005KT M01/M04 A3038 RMK A01 T10091039  RH  080%=      5-min Rain = 0
KWT1 091437Z 35005KT M01/M04 A3038 RMK A01 T10091039  RH  080%=      5-min Rain = 0
KWT1 091438Z 35005KT M01/M04 A3038 RMK A01 T10081040  RH  079%=      5-min Rain = 0
KWT1 091439Z 35005KT M01/M04 A3038 RMK A01 T10081040  RH  079%=      5-min Rain = 0
KWT1 091440Z 35004KT M01/M04 A3038 RMK A01 T10071040  RH  079%=      5-min Rain = 0
KWT1 091441Z 35005KT M01/M04 A3038 RMK A01 T10071040  RH  078%=      5-min Rain = 0
KWT1 091442Z 35004KT M01/M04 A3038 RMK A01 T10071040  RH  078%=      5-min Rain = 0
KWT1 091443Z 35005KT M01/M04 A3038 RMK A01 T10061042  RH  077%=      5-min Rain = 0
KWT1 091444Z 35005KT M01/M04 A3038 RMK A01 T10061043  RH  076%=      5-min Rain = 0
KWT1 091445Z 36004KT M01/M04 A3038 RMK A01 T10061043  RH  076%=      5-min Rain = 0
KWT1 091446Z 36004KT M01/M04 A3038 RMK A01 T10051043  RH  076%=      5-min Rain = 0
KWT1 091447Z 35004KT M00/M04 A3038 RMK A01 T10041041  RH  076%=      5-min Rain = 0
KWT1 091448Z 35005KT M00/M04 A3038 RMK A01 T10041039  RH  077%=      5-min Rain = 0
KWT1 091449Z 36004KT M00/M04 A3038 RMK A01 T10041039  RH  077%=      5-min Rain = 0
KWT1 091450Z 35005KT M00/M04 A3039 RMK A01 T10041040  RH  076%=      5-min Rain = 0
KWT1 091451Z 35005KT M00/M04 A3039 RMK A01 T10031044  RH  074%=      5-min Rain = 0
KWT1 091452Z 35005KT M00/M05 A3039 RMK A01 T10031047  RH  073%=      5-min Rain = 0
KWT1 091453Z 35005KT M00/M04 A3039 RMK A01 T10031044  RH  074%=      5-min Rain = 0
KWT1 091454Z 35005KT M00/M04 A3039 RMK A01 T10031044  RH  074%=      5-min Rain = 0
KWT1 091455Z 35004KT M00/M04 A3039 RMK A01 T10021044  RH  073%=      5-min Rain = 0
KWT1 091456Z 35005KT M00/M04 A3039 RMK A01 T10011039  RH  075%=      5-min Rain = 0
KWT1 091457Z 35005KT M00/M04 A3039 RMK A01 T10011041  RH  074%=      5-min Rain = 0
KWT1 091458Z 34005KT M00/M04 A3039 RMK A01 T10011043  RH  073%=      5-min Rain = 0
KWT1 091459Z 35005KT 00/04 A3039 RMK A01 T00000-43  RH  073%=      5-min Rain = 0
KWT1 091500Z 35006KT 00/04 A3039 RMK A01 T00000-44  RH  072%=      5-min Rain = 0
KWT1 091501Z 36005KT 00/M04 A3039 RMK A01 T00011042  RH  073%=      5-min Rain = 0
KWT1 091502Z 35005KT 00/M04 A3039 RMK A01 T00021040  RH  073%=      5-min Rain = 0
KWT1 091503Z 35004KT 00/M04 A3039 RMK A01 T00021041  RH  073%=      5-min Rain = 0
KWT1 091504Z 35006KT 00/M04 A3039 RMK A01 T00031040  RH  073%=      5-min Rain = 0
KWT1 091505Z 35006KT 00/M05 A3039 RMK A01 T00031045  RH  070%=      5-min Rain = 0
KWT1 091506Z 35005KT 00/M05 A3039 RMK A01 T00031045  RH  070%=      5-min Rain = 0
KWT1 091507Z 36005KT 00/M04 A3039 RMK A01 T00041044  RH  071%=      5-min Rain = 0
KWT1 091508Z 35005KT 00/M05 A3039 RMK A01 T00041045  RH  070%=      5-min Rain = 0
KWT1 091509Z 00006KT 00/M05 A3039 RMK A01 T00041046  RH  069%=      5-min Rain = 0
KWT1 091510Z 36006KT 00/M05 A3039 RMK A01 T00041047  RH  069%=      5-min Rain = 0
KWT1 091511Z 36005KT 00/M05 A3039 RMK A01 T00041046  RH  069%=      5-min Rain = 0
KWT1 091512Z 35006KT 01/M04 A3039 RMK A01 T00051044  RH  070%=      5-min Rain = 0
KWT1 091513Z 35006KT 01/M05 A3039 RMK A01 T00051045  RH  069%=      5-min Rain = 0
KWT1 091514Z 36006KT 01/M05 A3039 RMK A01 T00061046  RH  069%=      5-min Rain = 0
KWT1 091515Z 36006KT 01/M05 A3039 RMK A01 T00061047  RH  068%=      5-min Rain = 0
KWT1 091516Z 36006KT 01/M05 A3039 RMK A01 T00061049  RH  067%=      5-min Rain = 0
KWT1 091517Z 00006KT 01/M05 A3039 RMK A01 T00061050  RH  066%=      5-min Rain = 0
KWT1 091518Z 35006KT 01/M05 A3039 RMK A01 T00061050  RH  066%=      5-min Rain = 0
KWT1 091519Z 35006KT 01/M05 A3039 RMK A01 T00061049  RH  067%=      5-min Rain = 0
KWT1 091520Z 34005KT 01/M05 A3039 RMK A01 T00071048  RH  067%=      5-min Rain = 0
KWT1 091521Z 35006KT 01/M04 A3039 RMK A01 T00081043  RH  069%=      5-min Rain = 0
KWT1 091522Z 34007KT 01/M04 A3039 RMK A01 T00091043  RH  069%=      5-min Rain = 0
KWT1 091523Z 35008KT 01/M05 A3039 RMK A01 T00091049  RH  065%=      5-min Rain = 0
KWT1 091524Z 35007KT 01/M05 A304 RMK A01 T00091052  RH  064%=      5-min Rain = 0
KWT1 091525Z 35007KT 01/M05 A304 RMK A01 T00091054  RH  063%=      5-min Rain = 0
KWT1 091526Z 35007KT 01/M06 A304 RMK A01 T00091055  RH  062%=      5-min Rain = 0
KWT1 091527Z 34005KT 01/M05 A304 RMK A01 T00091052  RH  064%=      5-min Rain = 0
KWT1 091528Z 34005KT 01/M05 A304 RMK A01 T00101047  RH  066%=      5-min Rain = 0
KWT1 091529Z 34005KT 01/M04 A304 RMK A01 T00111043  RH  067%=      5-min Rain = 0
KWT1 091530Z 35005KT 01/M04 A304 RMK A01 T00121040  RH  068%=      5-min Rain = 0
KWT1 091531Z 35006KT 01/M05 A304 RMK A01 T00131046  RH  065%=      5-min Rain = 0
KWT1 091532Z 35007KT 01/M05 A304 RMK A01 T00131052  RH  062%=      5-min Rain = 0
KWT1 091533Z 36006KT 01/M06 A304 RMK A01 T00121057  RH  060%=      5-min Rain = 0
KWT1 091534Z 36006KT 01/M06 A304 RMK A01 T00121059  RH  059%=      5-min Rain = 0
KWT1 091535Z 36006KT 01/M06 A304 RMK A01 T00121060  RH  059%=      5-min Rain = 0
KWT1 091536Z 01005KT 01/M06 A304 RMK A01 T00121060  RH  059%=      5-min Rain = 0
KWT1 091537Z 36005KT 01/M06 A304 RMK A01 T00131058  RH  059%=      5-min Rain = 0
KWT1 091538Z 36004KT 01/M05 A304 RMK A01 T00131052  RH  062%=      5-min Rain = 0
KWT1 091539Z 35004KT 02/M05 A304 RMK A01 T00151045  RH  064%=      5-min Rain = 0
KWT1 091540Z 00004KT 02/M05 A304 RMK A01 T00161048  RH  063%=      5-min Rain = 0
KWT1 091541Z 02004KT 02/M05 A304 RMK A01 T00171046  RH  063%=      5-min Rain = 0
KWT1 091542Z 36004KT 02/M05 A304 RMK A01 T00171045  RH  063%=      5-min Rain = 0
KWT1 091543Z 35004KT 02/M04 A304 RMK A01 T00181044  RH  063%=      5-min Rain = 0
KWT1 091544Z 01004KT 02/M05 A304 RMK A01 T00181045  RH  063%=      5-min Rain = 0
KWT1 091545Z 01003KT 02/M04 A304 RMK A01 T00191043  RH  064%=      5-min Rain = 0
KWT1 091546Z 36004KT 02/M05 A304 RMK A01 T00191048  RH  061%=      5-min Rain = 0
KWT1 091547Z 34004KT 02/M05 A304 RMK A01 T00191045  RH  062%=      5-min Rain = 0
KWT1 091548Z 34004KT 02/M04 A304 RMK A01 T00201042  RH  063%=      5-min Rain = 0
KWT1 091549Z 35005KT 02/M05 A304 RMK A01 T00201050  RH  060%=      5-min Rain = 0
KWT1 091550Z 35004KT 02/M05 A304 RMK A01 T00201048  RH  060%=      5-min Rain = 0
KWT1 091551Z 35005KT 02/M04 A304 RMK A01 T00221042  RH  063%=      5-min Rain = 0
KWT1 091552Z 34006KT 02/M05 A304 RMK A01 T00231045  RH  061%=      5-min Rain = 0
KWT1 091553Z 35005KT 02/M05 A304 RMK A01 T00221053  RH  057%=      5-min Rain = 0
KWT1 091554Z 35006KT 02/M05 A304 RMK A01 T00211053  RH  058%=      5-min Rain = 0
KWT1 091555Z 35006KT 02/M06 A3041 RMK A01 T00211055  RH  057%=      5-min Rain = 0
KWT1 091556Z 00005KT 02/M06 A3041 RMK A01 T00211056  RH  057%=      5-min Rain = 0
KWT1 091557Z 36005KT 02/M05 A3041 RMK A01 T00211053  RH  058%=      5-min Rain = 0
KWT1 091558Z 34004KT 02/M05 A3041 RMK A01 T00211050  RH  059%=      5-min Rain = 0
KWT1 091559Z 34004KT 02/M05 A3041 RMK A01 T00221051  RH  059%=      5-min Rain = 0
KWT1 091600Z 34005KT 02/M05 A3041 RMK A01 T00221050  RH  059%=      5-min Rain = 0
KWT1 091601Z 34005KT 02/M05 A3041 RMK A01 T00221051  RH  058%=      5-min Rain = 0
KWT1 091602Z 34005KT 02/M05 A3041 RMK A01 T00221054  RH  057%=      5-min Rain = 0
KWT1 091603Z 34005KT 02/M06 A3041 RMK A01 T00211056  RH  057%=      5-min Rain = 0
KWT1 091604Z 36004KT 02/M05 A3041 RMK A01 T00211054  RH  057%=      5-min Rain = 0
KWT1 091605Z 01005KT 02/M05 A3041 RMK A01 T00221049  RH  059%=      5-min Rain = 0
KWT1 091606Z 01005KT 02/M05 A3041 RMK A01 T00241046  RH  060%=      5-min Rain = 0
KWT1 091607Z 01004KT 02/M05 A3041 RMK A01 T00241051  RH  058%=      5-min Rain = 0
KWT1 091608Z 01004KT 03/M05 A3041 RMK A01 T00251050  RH  058%=      5-min Rain = 0
KWT1 091609Z 00004KT 03/M05 A3041 RMK A01 T00251051  RH  058%=      5-min Rain = 0
KWT1 091610Z 35005KT 02/M06 A3041 RMK A01 T00241055  RH  056%=      5-min Rain = 0
KWT1 091611Z 35006KT 02/M05 A3041 RMK A01 T00241053  RH  057%=      5-min Rain = 0
KWT1 091612Z 35006KT 02/M05 A3041 RMK A01 T00241050  RH  058%=      5-min Rain = 0
KWT1 091613Z 36006KT 03/M05 A3041 RMK A01 T00251052  RH  057%=      5-min Rain = 0
KWT1 091614Z 36007KT 03/M05 A3041 RMK A01 T00251052  RH  057%=      5-min Rain = 0
KWT1 091615Z 35005KT 02/M05 A3041 RMK A01 T00241054  RH  056%=      5-min Rain = 0
KWT1 091616Z 35005KT 02/M05 A3041 RMK A01 T00241050  RH  058%=      5-min Rain = 0
KWT1 091617Z 01004KT 03/M05 A3041 RMK A01 T00251050  RH  058%=      5-min Rain = 0
KWT1 091618Z 01004KT 03/M05 A3041 RMK A01 T00251049  RH  058%=      5-min Rain = 0
KWT1 091619Z 36005KT 03/M05 A3041 RMK A01 T00261046  RH  059%=      5-min Rain = 0
KWT1 091620Z 35004KT 03/M05 A3041 RMK A01 T00271049  RH  057%=      5-min Rain = 0
KWT1 091621Z 01005KT 03/M05 A3041 RMK A01 T00271047  RH  058%=      5-min Rain = 0
KWT1 091622Z 01006KT 03/M05 A3041 RMK A01 T00281048  RH  057%=      5-min Rain = 0
KWT1 091623Z 01005KT 03/M05 A3042 RMK A01 T00281050  RH  056%=      5-min Rain = 0
KWT1 091624Z 00004KT 03/M05 A3042 RMK A01 T00281047  RH  057%=      5-min Rain = 0
KWT1 091625Z 36004KT 03/M05 A3041 RMK A01 T00291047  RH  058%=      5-min Rain = 0
KWT1 091626Z 01005KT 03/M05 A3041 RMK A01 T00291047  RH  057%=      5-min Rain = 0
KWT1 091627Z 02006KT 03/M04 A3041 RMK A01 T00301044  RH  058%=      5-min Rain = 0
KWT1 091628Z 02006KT 03/M05 A3041 RMK A01 T00311046  RH  057%=      5-min Rain = 0
KWT1 091629Z 02006KT 03/M05 A3041 RMK A01 T00301053  RH  054%=      5-min Rain = 0
KWT1 091630Z 01005KT 03/M05 A3041 RMK A01 T00301049  RH  056%=      5-min Rain = 0
KWT1 091631Z 01005KT 03/M05 A3041 RMK A01 T00301052  RH  055%=      5-min Rain = 0
KWT1 091632Z 01007KT 03/M05 A3041 RMK A01 T00301053  RH  054%=      5-min Rain = 0
KWT1 091633Z 01005KT 03/M06 A3041 RMK A01 T00301059  RH  052%=      5-min Rain = 0
KWT1 091634Z 02005KT 03/M06 A3041 RMK A01 T00301057  RH  053%=      5-min Rain = 0
KWT1 091635Z 03005KT 03/M06 A3041 RMK A01 T00301056  RH  053%=      5-min Rain = 0
KWT1 091636Z 04004KT 03/M06 A3041 RMK A01 T00301055  RH  054%=      5-min Rain = 0
KWT1 091637Z 04004KT 03/M05 A3041 RMK A01 T00301053  RH  055%=      5-min Rain = 0
KWT1 091638Z 03005KT 03/M05 A3041 RMK A01 T00301048  RH  057%=      5-min Rain = 0
KWT1 091639Z 02005KT 03/M05 A3041 RMK A01 T00321053  RH  054%=      5-min Rain = 0
KWT1 091640Z 01005KT 03/M06 A3041 RMK A01 T00321058  RH  052%=      5-min Rain = 0
KWT1 091641Z 01005KT 03/M06 A3041 RMK A01 T00311056  RH  053%=      5-min Rain = 0
KWT1 091642Z 00005KT 03/M05 A3041 RMK A01 T00321049  RH  055%=      5-min Rain = 0
KWT1 091643Z 01004KT 03/M05 A3041 RMK A01 T00321054  RH  053%=      5-min Rain = 0
KWT1 091644Z 00004KT 03/M05 A3041 RMK A01 T00321054  RH  053%=      5-min Rain = 0
KWT1 091645Z 02004KT 03/M05 A3041 RMK A01 T00321053  RH  054%=      5-min Rain = 0
KWT1 091646Z 02006KT 03/M05 A3041 RMK A01 T00321054  RH  053%=      5-min Rain = 0
KWT1 091647Z 01006KT 03/M06 A3041 RMK A01 T00341055  RH  052%=      5-min Rain = 0
KWT1 091648Z 01004KT 03/M06 A3041 RMK A01 T00341055  RH  052%=      5-min Rain = 0
KWT1 091649Z 03005KT 03/M06 A3041 RMK A01 T00331057  RH  052%=      5-min Rain = 0
KWT1 091650Z 02005KT 04/M05 A3041 RMK A01 T00351046  RH  055%=      5-min Rain = 0
KWT1 091651Z 02004KT 04/M05 A3041 RMK A01 T00361051  RH  053%=      5-min Rain = 0
KWT1 091652Z 02005KT 04/M05 A3041 RMK A01 T00361049  RH  054%=      5-min Rain = 0
KWT1 091653Z 03005KT 04/M05 A3041 RMK A01 T00361051  RH  053%=      5-min Rain = 0
KWT1 091654Z 03005KT 04/M05 A3041 RMK A01 T00371046  RH  054%=      5-min Rain = 0
KWT1 091655Z 01004KT 04/M05 A3041 RMK A01 T00371051  RH  052%=      5-min Rain = 0
KWT1 091656Z 04006KT 04/M05 A3041 RMK A01 T00381046  RH  055%=      5-min Rain = 0
KWT1 091657Z 03007KT 04/M05 A3041 RMK A01 T00391046  RH  054%=      5-min Rain = 0
KWT1 091658Z 01006KT 04/M05 A3041 RMK A01 T00381050  RH  053%=      5-min Rain = 0
KWT1 091659Z 02006KT 04/M05 A3041 RMK A01 T00391051  RH  052%=      5-min Rain = 0
KWT1 091700Z 04006KT 04/M05 A3041 RMK A01 T00391054  RH  051%=      5-min Rain = 0
KWT1 091701Z 04006KT 04/M05 A3041 RMK A01 T00391054  RH  051%=      5-min Rain = 0
KWT1 091702Z 03007KT 04/M06 A3041 RMK A01 T00381056  RH  050%=      5-min Rain = 0
KWT1 091703Z 03007KT 04/M05 A3041 RMK A01 T00371052  RH  052%=      5-min Rain = 0
KWT1 091704Z 03007KT 04/M05 A3041 RMK A01 T00381053  RH  051%=      5-min Rain = 0
KWT1 091705Z 04006KT 04/M06 A3041 RMK A01 T00381057  RH  050%=      5-min Rain = 0
KWT1 091706Z 04006KT 04/M06 A3041 RMK A01 T00371058  RH  050%=      5-min Rain = 0
KWT1 091707Z 02005KT 04/M05 A3041 RMK A01 T00381054  RH  051%=      5-min Rain = 0
KWT1 091708Z 02006KT 04/M05 A3041 RMK A01 T00411047  RH  053%=      5-min Rain = 0
KWT1 091709Z 03007KT 04/M05 A3041 RMK A01 T00411050  RH  051%=      5-min Rain = 0
KWT1 091710Z 03007KT 04/M05 A3041 RMK A01 T00421049  RH  052%=      5-min Rain = 0
KWT1 091711Z 03007KT 04/M05 A3041 RMK A01 T00421049  RH  051%=      5-min Rain = 0
KWT1 091712Z 03007KT 04/M06 A3041 RMK A01 T00421055  RH  049%=      5-min Rain = 0
KWT1 091713Z 02006KT 04/M05 A3041 RMK A01 T00421054  RH  050%=      5-min Rain = 0
KWT1 091714Z 04007KT 04/M06 A3041 RMK A01 T00411055  RH  050%=      5-min Rain = 0
KWT1 091715Z 03007KT 04/M05 A3041 RMK A01 T00421053  RH  050%=      5-min Rain = 0
KWT1 091716Z 00005KT 04/M04 A3041 RMK A01 T00441043  RH  053%=      5-min Rain = 0
KWT1 091717Z 01006KT 05/M04 A3041 RMK A01 T00451044  RH  052%=      5-min Rain = 0
KWT1 091718Z 00005KT 05/M05 A3041 RMK A01 T00451047  RH  051%=      5-min Rain = 0
KWT1 091719Z 01005KT 05/M04 A3041 RMK A01 T00461043  RH  052%=      5-min Rain = 0
KWT1 091720Z 35005KT 05/M05 A3041 RMK A01 T00461045  RH  052%=      5-min Rain = 0
KWT1 091721Z 34005KT 05/M04 A3041 RMK A01 T00471044  RH  052%=      5-min Rain = 0
KWT1 091722Z 33006KT 05/M05 A3041 RMK A01 T00481048  RH  050%=      5-min Rain = 0
KWT1 091723Z 34008KT 05/M05 A3041 RMK A01 T00481053  RH  048%=      5-min Rain = 0
KWT1 091724Z 33008KT 05/M06 A3041 RMK A01 T00461061  RH  046%=      5-min Rain = 0
KWT1 091725Z 34006KT 05/M06 A3041 RMK A01 T00451058  RH  047%=      5-min Rain = 0
KWT1 091726Z 34007KT 05/M05 A3041 RMK A01 T00451054  RH  048%=      5-min Rain = 0
KWT1 091727Z 35005KT 05/M05 A3041 RMK A01 T00461051  RH  049%=      5-min Rain = 0
KWT1 091728Z 34006KT 05/M05 A3041 RMK A01 T00481051  RH  049%=      5-min Rain = 0
KWT1 091729Z 35007KT 05/M06 A3041 RMK A01 T00461058  RH  047%=      5-min Rain = 0
KWT1 091730Z 35008KT 05/M06 A3041 RMK A01 T00461058  RH  047%=      5-min Rain = 0
KWT1 091731Z 35008KT 05/M06 A3041 RMK A01 T00461062  RH  045%=      5-min Rain = 0
KWT1 091732Z 35007KT 05/M07 A3041 RMK A01 T00461065  RH  044%=      5-min Rain = 0
KWT1 091733Z 01005KT 05/M07 A3041 RMK A01 T00451067  RH  044%=      5-min Rain = 0
KWT1 091734Z 02006KT 04/M07 A3041 RMK A01 T00431070  RH  044%=      5-min Rain = 0
KWT1 091735Z 00008KT 04/M06 A3041 RMK A01 T00441064  RH  045%=      5-min Rain = 0
KWT1 091736Z 00009KT 04/M07 A3041 RMK A01 T00441066  RH  045%=      5-min Rain = 0
KWT1 091737Z 36009KT 04/M07 A3041 RMK A01 T00441071  RH  043%=      5-min Rain = 0
KWT1 091738Z 01008KT 04/M07 A3041 RMK A01 T00441071  RH  043%=      5-min Rain = 0
KWT1 091739Z 36008KT 05/M07 A3041 RMK A01 T00451071  RH  043%=      5-min Rain = 0
KWT1 091740Z 36006KT 05/M07 A304 RMK A01 T00451072  RH  042%=      5-min Rain = 0
KWT1 091741Z 00008KT 05/M07 A3041 RMK A01 T00451071  RH  043%=      5-min Rain = 0
KWT1 091742Z 00008KT 05/M07 A3041 RMK A01 T00471069  RH  043%=      5-min Rain = 0
KWT1 091743Z 00007KT 05/M08 A304 RMK A01 T00461075  RH  041%=      5-min Rain = 0
KWT1 091744Z 02007KT 05/M08 A304 RMK A01 T00451075  RH  041%=      5-min Rain = 0
KWT1 091745Z 02007KT 05/M07 A304 RMK A01 T00461072  RH  042%=      5-min Rain = 0
KWT1 091746Z 01007KT 05/M07 A304 RMK A01 T00461072  RH  042%=      5-min Rain = 0
KWT1 091747Z 01006KT 05/M07 A304 RMK A01 T00471066  RH  044%=      5-min Rain = 0
KWT1 091748Z 01007KT 05/M07 A304 RMK A01 T00491067  RH  043%=      5-min Rain = 0
KWT1 091749Z 02006KT 05/M07 A304 RMK A01 T00491067  RH  043%=      5-min Rain = 0
KWT1 091750Z 02009KT 05/M07 A304 RMK A01 T00521066  RH  042%=      5-min Rain = 0
KWT1 091751Z 02007KT 05/M07 A304 RMK A01 T00501073  RH  041%=      5-min Rain = 0
KWT1 091752Z 00007KT 05/M07 A304 RMK A01 T00491072  RH  041%=      5-min Rain = 0
KWT1 091753Z 02006KT 05/M07 A304 RMK A01 T00491068  RH  042%=      5-min Rain = 0
KWT1 091754Z 03008KT 05/M07 A304 RMK A01 T00501072  RH  041%=      5-min Rain = 0
KWT1 091755Z 01007KT 05/M07 A304 RMK A01 T00501073  RH  041%=      5-min Rain = 0
KWT1 091756Z 01006KT 05/M06 A304 RMK A01 T00531061  RH  044%=      5-min Rain = 0
KWT1 091757Z 02007KT 06/M06 A304 RMK A01 T00551060  RH  043%=      5-min Rain = 0
KWT1 091758Z 00009KT 06/M06 A304 RMK A01 T00571064  RH  042%=      5-min Rain = 0
KWT1 091759Z 01007KT 05/M08 A304 RMK A01 T00541081  RH  037%=      5-min Rain = 0
KWT1 091800Z 03008KT 05/M08 A304 RMK A01 T00511081  RH  038%=      5-min Rain = 0
KWT1 091801Z 02008KT 05/M08 A304 RMK A01 T00511079  RH  038%=      5-min Rain = 0
KWT1 091802Z 01009KT 05/M08 A304 RMK A01 T00521075  RH  039%=      5-min Rain = 0
KWT1 091803Z 01009KT 05/M08 A304 RMK A01 T00511079  RH  039%=      5-min Rain = 0
KWT1 091804Z 01007KT 05/M08 A304 RMK A01 T00511076  RH  039%=      5-min Rain = 0
KWT1 091805Z 00008KT 05/M08 A304 RMK A01 T00501081  RH  038%=      5-min Rain = 0
KWT1 091806Z 01008KT 05/M08 A304 RMK A01 T00491077  RH  039%=      5-min Rain = 0
KWT1 091807Z 01007KT 05/M07 A304 RMK A01 T00501073  RH  040%=      5-min Rain = 0
KWT1 091808Z 01007KT 05/M07 A304 RMK A01 T00521073  RH  040%=      5-min Rain = 0
KWT1 091809Z 35009KT 05/M08 A3039 RMK A01 T00511075  RH  039%=      5-min Rain = 0
KWT1 091810Z 01007KT 05/M08 A3039 RMK A01 T00501075  RH  040%=      5-min Rain = 0
KWT1 091811Z 01007KT 05/M08 A3039 RMK A01 T00501077  RH  039%=      5-min Rain = 0
KWT1 091812Z 00008KT 05/M08 A3039 RMK A01 T00501078  RH  039%=      5-min Rain = 0
KWT1 091813Z 01007KT 05/M08 A3039 RMK A01 T00501080  RH  038%=      5-min Rain = 0
KWT1 091814Z 02007KT 05/M08 A3039 RMK A01 T00501078  RH  039%=      5-min Rain = 0
KWT1 091815Z 02006KT 05/M07 A3039 RMK A01 T00521072  RH  040%=      5-min Rain = 0
KWT1 091816Z 01006KT 05/M07 A3039 RMK A01 T00541071  RH  040%=      5-min Rain = 0
KWT1 091817Z 02007KT 05/M07 A3039 RMK A01 T00531069  RH  041%=      5-min Rain = 0
KWT1 091818Z 02006KT 05/M08 A3039 RMK A01 T00531075  RH  039%=      5-min Rain = 0
KWT1 091819Z 34007KT 06/M07 A3039 RMK A01 T00551069  RH  041%=      5-min Rain = 0
KWT1 091820Z 35008KT 06/M07 A3039 RMK A01 T00551072  RH  040%=      5-min Rain = 0
KWT1 091821Z 36007KT 05/M08 A3039 RMK A01 T00511075  RH  040%=      5-min Rain = 0
KWT1 091822Z 36006KT 05/M07 A3039 RMK A01 T00501072  RH  041%=      5-min Rain = 0
KWT1 091823Z 35008KT 05/M07 A3039 RMK A01 T00501074  RH  040%=      5-min Rain = 0
KWT1 091824Z 34008KT 05/M07 A3038 RMK A01 T00511066  RH  042%=      5-min Rain = 0
KWT1 091825Z 35007KT 05/M07 A3038 RMK A01 T00511070  RH  041%=      5-min Rain = 0
KWT1 091826Z 36005KT 05/M07 A3038 RMK A01 T00511072  RH  041%=      5-min Rain = 0
KWT1 091827Z 02004KT 05/M07 A3038 RMK A01 T00511073  RH  040%=      5-min Rain = 0
KWT1 091828Z 00004KT 05/M07 A3038 RMK A01 T00511074  RH  040%=      5-min Rain = 0
KWT1 091829Z 35006KT 05/M07 A3038 RMK A01 T00521071  RH  041%=      5-min Rain = 0
KWT1 091830Z 00007KT 05/M07 A3038 RMK A01 T00541068  RH  041%=      5-min Rain = 0
KWT1 091831Z 02007KT 06/M07 A3038 RMK A01 T00561069  RH  040%=      5-min Rain = 0
KWT1 091832Z 02010KT 06/M07 A3038 RMK A01 T00571069  RH  040%=      5-min Rain = 0
KWT1 091833Z 00007KT 06/M08 A3038 RMK A01 T00551075  RH  039%=      5-min Rain = 0
KWT1 091834Z 02003KT 05/M08 A3038 RMK A01 T00521080  RH  038%=      5-min Rain = 0
KWT1 091835Z 02003KT 05/M08 A3038 RMK A01 T00511080  RH  038%=      5-min Rain = 0
KWT1 091836Z 02006KT 05/M07 A3038 RMK A01 T00531073  RH  040%=      5-min Rain = 0
KWT1 091837Z 01008KT 06/M07 A3038 RMK A01 T00561069  RH  040%=      5-min Rain = 0
KWT1 091838Z 02007KT 06/M08 A3038 RMK A01 T00571078  RH  037%=      5-min Rain = 0
KWT1 091839Z 01008KT 06/M07 A3038 RMK A01 T00571072  RH  039%=      5-min Rain = 0
KWT1 091840Z 02006KT 06/M07 A3038 RMK A01 T00561074  RH  038%=      5-min Rain = 0
KWT1 091841Z 00007KT 06/M07 A3038 RMK A01 T00551074  RH  039%=      5-min Rain = 0
KWT1 091842Z 02007KT 05/M08 A3038 RMK A01 T00541075  RH  039%=      5-min Rain = 0
KWT1 091843Z 01007KT 05/M07 A3038 RMK A01 T00541072  RH  040%=      5-min Rain = 0
KWT1 091844Z 02007KT 06/M07 A3037 RMK A01 T00571066  RH  041%=      5-min Rain = 0
KWT1 091845Z 00006KT 06/M07 A3037 RMK A01 T00591066  RH  040%=      5-min Rain = 0
KWT1 091846Z 01008KT 06/M06 A3037 RMK A01 T00591064  RH  041%=      5-min Rain = 0
KWT1 091847Z 01009KT 06/M06 A3037 RMK A01 T00591063  RH  041%=      5-min Rain = 0
KWT1 091848Z 03008KT 06/M07 A3037 RMK A01 T00591066  RH  040%=      5-min Rain = 0
KWT1 091849Z 01007KT 06/M07 A3037 RMK A01 T00581065  RH  041%=      5-min Rain = 0
KWT1 091850Z 01006KT 06/M07 A3037 RMK A01 T00581066  RH  040%=      5-min Rain = 0
KWT1 091851Z 02005KT 06/M07 A3037 RMK A01 T00571067  RH  040%=      5-min Rain = 0
KWT1 091852Z 03009KT 06/M07 A3037 RMK A01 T00581067  RH  040%=      5-min Rain = 0
KWT1 091853Z 03008KT 06/M07 A3037 RMK A01 T00581066  RH  040%=      5-min Rain = 0
KWT1 091854Z 36007KT 06/M07 A3037 RMK A01 T00591066  RH  040%=      5-min Rain = 0
KWT1 091855Z 34006KT 06/M06 A3037 RMK A01 T00631063  RH  040%=      5-min Rain = 0
KWT1 091856Z 01007KT 07/M07 A3037 RMK A01 T00651065  RH  039%=      5-min Rain = 0
KWT1 091857Z 00010KT 06/M07 A3037 RMK A01 T00631073  RH  037%=      5-min Rain = 0
KWT1 091858Z 36009KT 06/M08 A3037 RMK A01 T00591075  RH  037%=      5-min Rain = 0
KWT1 091859Z 36009KT 06/M08 A3037 RMK A01 T00561076  RH  038%=      5-min Rain = 0
KWT1 091900Z 02008KT 06/M07 A3037 RMK A01 T00561073  RH  039%=      5-min Rain = 0
KWT1 091901Z 02008KT 06/M08 A3037 RMK A01 T00581075  RH  038%=      5-min Rain = 0
KWT1 091902Z 01007KT 06/M08 A3037 RMK A01 T00581077  RH  037%=      5-min Rain = 0
KWT1 091903Z 02005KT 06/M08 A3037 RMK A01 T00581079  RH  037%=      5-min Rain = 0
KWT1 091904Z 01007KT 06/M08 A3037 RMK A01 T00581078  RH  037%=      5-min Rain = 0
KWT1 091905Z 02007KT 06/M07 A3037 RMK A01 T00601071  RH  038%=      5-min Rain = 0
KWT1 091906Z 02006KT 06/M08 A3037 RMK A01 T00621076  RH  037%=      5-min Rain = 0
KWT1 091907Z 01005KT 06/M08 A3037 RMK A01 T00611077  RH  036%=      5-min Rain = 0
KWT1 091908Z 02005KT 06/M08 A3037 RMK A01 T00591081  RH  036%=      5-min Rain = 0
KWT1 091909Z 04006KT 06/M08 A3037 RMK A01 T00591075  RH  037%=      5-min Rain = 0
KWT1 091910Z 02007KT 06/M07 A3037 RMK A01 T00611072  RH  038%=      5-min Rain = 0
KWT1 091911Z 03007KT 06/M07 A3037 RMK A01 T00621072  RH  038%=      5-min Rain = 0
KWT1 091912Z 00006KT 06/M07 A3036 RMK A01 T00611071  RH  038%=      5-min Rain = 0
KWT1 091913Z 34006KT 06/M07 A3036 RMK A01 T00621068  RH  039%=      5-min Rain = 0
KWT1 091914Z 33005KT 06/M07 A3036 RMK A01 T00611074  RH  037%=      5-min Rain = 0
KWT1 091915Z 33005KT 06/M07 A3036 RMK A01 T00591072  RH  038%=      5-min Rain = 0
KWT1 091916Z 32004KT 06/M07 A3036 RMK A01 T00601065  RH  040%=      5-min Rain = 0
KWT1 091917Z 33006KT 06/M07 A3036 RMK A01 T00601065  RH  040%=      5-min Rain = 0
KWT1 091918Z 00007KT 06/M07 A3036 RMK A01 T00601066  RH  040%=      5-min Rain = 0
KWT1 091919Z 00007KT 06/M06 A3036 RMK A01 T00621062  RH  040%=      5-min Rain = 0
KWT1 091920Z 34006KT 06/M07 A3036 RMK A01 T00631070  RH  038%=      5-min Rain = 0
KWT1 091921Z 33005KT 06/M08 A3036 RMK A01 T00631076  RH  036%=      5-min Rain = 0
KWT1 091922Z 32004KT 06/M07 A3036 RMK A01 T00621074  RH  037%=      5-min Rain = 0
KWT1 091923Z 31004KT 06/M08 A3036 RMK A01 T00611075  RH  037%=      5-min Rain = 0
KWT1 091924Z 32003KT 06/M08 A3036 RMK A01 T00601077  RH  037%=      5-min Rain = 0
KWT1 091925Z 32003KT 06/M08 A3036 RMK A01 T00601076  RH  037%=      5-min Rain = 0
KWT1 091926Z 33005KT 06/M07 A3036 RMK A01 T00611074  RH  037%=      5-min Rain = 0
KWT1 091927Z 33005KT 06/M07 A3036 RMK A01 T00631073  RH  037%=      5-min Rain = 0
KWT1 091928Z 33005KT 06/M07 A3036 RMK A01 T00631073  RH  037%=      5-min Rain = 0
KWT1 091929Z 36006KT 06/M08 A3036 RMK A01 T00631076  RH  036%=      5-min Rain = 0
KWT1 091930Z 35005KT 06/M08 A3036 RMK A01 T00631075  RH  037%=      5-min Rain = 0
KWT1 091931Z 33003KT 06/M08 A3036 RMK A01 T00631076  RH  036%=      5-min Rain = 0
KWT1 091932Z 32002KT 06/M08 A3036 RMK A01 T00611081  RH  036%=      5-min Rain = 0
KWT1 091933Z 31002KT 06/M07 A3036 RMK A01 T00611072  RH  038%=      5-min Rain = 0
KWT1 091934Z 35003G8KT 06/M07 A3036 RMK A01 T00631071  RH  038%=      5-min Rain = 0
KWT1 091935Z 01005KT 06/M07 A3036 RMK A01 T00641074  RH  037%=      5-min Rain = 0
KWT1 091936Z 04002KT 06/M08 A3036 RMK A01 T00621080  RH  036%=      5-min Rain = 0
KWT1 091937Z 36002KT 06/M07 A3036 RMK A01 T00621074  RH  037%=      5-min Rain = 0
KWT1 091938Z 32005KT 06/M07 A3036 RMK A01 T00641070  RH  038%=      5-min Rain = 0
KWT1 091939Z 32005KT 07/M07 A3036 RMK A01 T00651067  RH  039%=      5-min Rain = 0
KWT1 091940Z 34004KT 07/M07 A3036 RMK A01 T00651067  RH  038%=      5-min Rain = 0
KWT1 091941Z 33004KT 07/M07 A3036 RMK A01 T00651067  RH  038%=      5-min Rain = 0
KWT1 091942Z 33004KT 07/M07 A3036 RMK A01 T00661067  RH  038%=      5-min Rain = 0
KWT1 091943Z 33003KT 07/M07 A3035 RMK A01 T00651065  RH  039%=      5-min Rain = 0
KWT1 091944Z 32004KT 07/M06 A3035 RMK A01 T00651063  RH  039%=      5-min Rain = 0
KWT1 091945Z 35003KT 07/M06 A3035 RMK A01 T00661063  RH  039%=      5-min Rain = 0
KWT1 091946Z 01005KT 07/M07 A3035 RMK A01 T00651065  RH  039%=      5-min Rain = 0
KWT1 091947Z 02007KT 07/M07 A3035 RMK A01 T00661065  RH  039%=      5-min Rain = 0
KWT1 091948Z 01006KT 07/M07 A3035 RMK A01 T00671067  RH  038%=      5-min Rain = 0
KWT1 091949Z 02005KT 07/M07 A3035 RMK A01 T00651070  RH  037%=      5-min Rain = 0
KWT1 091950Z 03004KT 06/M07 A3035 RMK A01 T00641071  RH  037%=      5-min Rain = 0
KWT1 091951Z 35004KT 06/M07 A3035 RMK A01 T00641069  RH  038%=      5-min Rain = 0
KWT1 091952Z 33006KT 07/M07 A3035 RMK A01 T00651066  RH  039%=      5-min Rain = 0
KWT1 091953Z 34005KT 06/M07 A3035 RMK A01 T00641067  RH  039%=      5-min Rain = 0
KWT1 091954Z 36004KT 07/M06 A3035 RMK A01 T00661059  RH  040%=      5-min Rain = 0
KWT1 091955Z 01003KT 07/M06 A3035 RMK A01 T00661062  RH  039%=      5-min Rain = 0
KWT1 091956Z 31004KT 07/M06 A3035 RMK A01 T00671061  RH  040%=      5-min Rain = 0
KWT1 091957Z 31003KT 07/M06 A3035 RMK A01 T00681056  RH  041%=      5-min Rain = 0
KWT1 091958Z 32005KT 07/M06 A3035 RMK A01 T00681061  RH  039%=      5-min Rain = 0
KWT1 091959Z 35005KT 07/M06 A3035 RMK A01 T00671063  RH  039%=      5-min Rain = 0
KWT1 092000Z 35007KT 07/M06 A3035 RMK A01 T00681063  RH  039%=      5-min Rain = 0
KWT1 092001Z 35006KT 07/M07 A3036 RMK A01 T00691066  RH  037%=      5-min Rain = 0
KWT1 092002Z 34006KT 07/M07 A3036 RMK A01 T00681071  RH  036%=      5-min Rain = 0
KWT1 092003Z 35005KT 07/M07 A3036 RMK A01 T00661072  RH  037%=      5-min Rain = 0
KWT1 092004Z 35004KT 07/M07 A3036 RMK A01 T00661071  RH  037%=      5-min Rain = 0
KWT1 092005Z 36003KT 07/M07 A3036 RMK A01 T00671069  RH  037%=      5-min Rain = 0
KWT1 092006Z 01003KT 07/M07 A3036 RMK A01 T00671072  RH  036%=      5-min Rain = 0
KWT1 092007Z 05001KT 07/M07 A3036 RMK A01 T00681069  RH  037%=      5-min Rain = 0
KWT1 092008Z 14002KT 07/M06 A3036 RMK A01 T00691063  RH  038%=      5-min Rain = 0
KWT1 092009Z 09001KT 07/M06 A3035 RMK A01 T00711059  RH  039%=      5-min Rain = 0
KWT1 092010Z 36002KT 07/M06 A3035 RMK A01 T00731062  RH  038%=      5-min Rain = 0
KWT1 092011Z 01004KT 07/M07 A3036 RMK A01 T00741067  RH  036%=      5-min Rain = 0
KWT1 092012Z 34002KT 07/M06 A3035 RMK A01 T00741064  RH  037%=      5-min Rain = 0
KWT1 092013Z 33003KT 07/M06 A3035 RMK A01 T00741064  RH  037%=      5-min Rain = 0
KWT1 092014Z 32003KT 07/M07 A3035 RMK A01 T00731067  RH  036%=      5-min Rain = 0
KWT1 092015Z 32004KT 07/M07 A3035 RMK A01 T00721067  RH  036%=      5-min Rain = 0
KWT1 092016Z 34004KT 07/M07 A3035 RMK A01 T00711068  RH  037%=      5-min Rain = 0
KWT1 092017Z 33003KT 07/M07 A3035 RMK A01 T00711066  RH  037%=      5-min Rain = 0
KWT1 092018Z 32004KT 07/M07 A3035 RMK A01 T00711065  RH  037%=      5-min Rain = 0
KWT1 092019Z 33007KT 07/M06 A3035 RMK A01 T00711057  RH  040%=      5-min Rain = 0
KWT1 092020Z 32006KT 07/M06 A3035 RMK A01 T00721060  RH  038%=      5-min Rain = 0
KWT1 092021Z 32004KT 07/M07 A3035 RMK A01 T00701067  RH  037%=      5-min Rain = 0
KWT1 092022Z 32004KT 07/M07 A3035 RMK A01 T00681068  RH  037%=      5-min Rain = 0
KWT1 092023Z 31004KT 07/M06 A3035 RMK A01 T00671064  RH  039%=      5-min Rain = 0
KWT1 092024Z 30005KT 07/M06 A3035 RMK A01 T00691060  RH  039%=      5-min Rain = 0
KWT1 092025Z 34006KT 07/M06 A3035 RMK A01 T00701060  RH  039%=      5-min Rain = 0
KWT1 092026Z 35007KT 07/M06 A3035 RMK A01 T00711061  RH  039%=      5-min Rain = 0
KWT1 092027Z 34007KT 07/M06 A3035 RMK A01 T00711061  RH  039%=      5-min Rain = 0
KWT1 092028Z 33006KT 07/M06 A3035 RMK A01 T00711062  RH  038%=      5-min Rain = 0
KWT1 092029Z 34005KT 07/M06 A3035 RMK A01 T00701063  RH  038%=      5-min Rain = 0
KWT1 092030Z 32003KT 07/M07 A3035 RMK A01 T00701068  RH  037%=      5-min Rain = 0
KWT1 092031Z 35004KT 07/M07 A3035 RMK A01 T00691067  RH  037%=      5-min Rain = 0
KWT1 092032Z 34006KT 07/M06 A3035 RMK A01 T00701061  RH  039%=      5-min Rain = 0
KWT1 092033Z 32005KT 07/M06 A3035 RMK A01 T00711064  RH  038%=      5-min Rain = 0
KWT1 092034Z 32004KT 07/M07 A3035 RMK A01 T00711066  RH  037%=      5-min Rain = 0
KWT1 092035Z 32004KT 07/M07 A3035 RMK A01 T00691068  RH  037%=      5-min Rain = 0
KWT1 092036Z 34004KT 07/M07 A3035 RMK A01 T00691066  RH  038%=      5-min Rain = 0
KWT1 092037Z 02003KT 07/M07 A3034 RMK A01 T00691068  RH  037%=      5-min Rain = 0
KWT1 092038Z 06001KT 07/M07 A3034 RMK A01 T00691068  RH  037%=      5-min Rain = 0
KWT1 092039Z 31002KT 07/M07 A3034 RMK A01 T00701071  RH  036%=      5-min Rain = 0
KWT1 092040Z 27001KT 07/M07 A3034 RMK A01 T00711065  RH  037%=      5-min Rain = 0
KWT1 092041Z 32001KT 07/M06 A3034 RMK A01 T00731060  RH  038%=      5-min Rain = 0
KWT1 092042Z 30003KT 07/M06 A3034 RMK A01 T00741058  RH  038%=      5-min Rain = 0
KWT1 092043Z 32006KT 08/M06 A3034 RMK A01 T00751060  RH  038%=      5-min Rain = 0
KWT1 092044Z 32004KT 07/M06 A3034 RMK A01 T00731062  RH  038%=      5-min Rain = 0
KWT1 092045Z 31005KT 07/M06 A3034 RMK A01 T00721060  RH  039%=      5-min Rain = 0
KWT1 092046Z 32003KT 07/M06 A3034 RMK A01 T00731062  RH  038%=      5-min Rain = 0
KWT1 092047Z 34003KT 07/M06 A3034 RMK A01 T00721064  RH  037%=      5-min Rain = 0
KWT1 092048Z 30001KT 07/M07 A3034 RMK A01 T00721066  RH  037%=      5-min Rain = 0
KWT1 092049Z 27001KT 07/M07 A3034 RMK A01 T00721066  RH  037%=      5-min Rain = 0
KWT1 092050Z 28000KT 07/M07 A3034 RMK A01 T00721067  RH  036%=      5-min Rain = 0
KWT1 092051Z 16000KT 08/M06 A3034 RMK A01 T00751060  RH  038%=      5-min Rain = 0
KWT1 092052Z 25000KT 08/M05 A3034 RMK A01 T00781051  RH  040%=      5-min Rain = 0
KWT1 092053Z 34003KT 08/M05 A3034 RMK A01 T00801053  RH  038%=      5-min Rain = 0
KWT1 092054Z 33005KT 08/M06 A3034 RMK A01 T00781063  RH  036%=      5-min Rain = 0
KWT1 092055Z 33007KT 08/M06 A3034 RMK A01 T00771064  RH  036%=      5-min Rain = 0
KWT1 092056Z 35005KT 08/M06 A3034 RMK A01 T00761063  RH  037%=      5-min Rain = 0
KWT1 092057Z 35006KT 08/M06 A3034 RMK A01 T00751064  RH  037%=      5-min Rain = 0
KWT1 092058Z 35006KT 07/M07 A3034 RMK A01 T00741066  RH  036%=      5-min Rain = 0
KWT1 092059Z 35004KT 07/M07 A3034 RMK A01 T00731067  RH  036%=      5-min Rain = 0
KWT1 092100Z 32003KT 07/M07 A3034 RMK A01 T00731067  RH  036%=      5-min Rain = 0
KWT1 092101Z 30005KT 07/M06 A3034 RMK A01 T00741059  RH  038%=      5-min Rain = 0
KWT1 092102Z 31003KT 08/M06 A3034 RMK A01 T00751061  RH  038%=      5-min Rain = 0
KWT1 092103Z 30002KT 08/M07 A3034 RMK A01 T00751066  RH  036%=      5-min Rain = 0
KWT1 092104Z 28003KT 07/M07 A3034 RMK A01 T00741066  RH  036%=      5-min Rain = 0
KWT1 092105Z 26002KT 08/M07 A3034 RMK A01 T00751069  RH  035%=      5-min Rain = 0
KWT1 092106Z 25002KT 07/M07 A3033 RMK A01 T00741070  RH  035%=      5-min Rain = 0
KWT1 092107Z 25001KT 08/M06 A3033 RMK A01 T00751064  RH  037%=      5-min Rain = 0
KWT1 092108Z 03003KT 08/M06 A3033 RMK A01 T00781056  RH  038%=      5-min Rain = 0
KWT1 092109Z 03004KT 08/M06 A3033 RMK A01 T00791061  RH  036%=      5-min Rain = 0
KWT1 092110Z 02005KT 08/M07 A3033 RMK A01 T00791065  RH  035%=      5-min Rain = 0
KWT1 092111Z 01006KT 08/M06 A3033 RMK A01 T00791063  RH  036%=      5-min Rain = 0
KWT1 092112Z 01004KT 08/M07 A3033 RMK A01 T00771071  RH  034%=      5-min Rain = 0
KWT1 092113Z 01003KT 08/M07 A3033 RMK A01 T00751070  RH  035%=      5-min Rain = 0
KWT1 092114Z 02005KT 08/M06 A3033 RMK A01 T00761064  RH  037%=      5-min Rain = 0
KWT1 092115Z 03005KT 08/M07 A3033 RMK A01 T00781065  RH  036%=      5-min Rain = 0
KWT1 092116Z 01003KT 08/M07 A3033 RMK A01 T00751073  RH  034%=      5-min Rain = 0
KWT1 092117Z 36007KT 07/M07 A3033 RMK A01 T00741068  RH  036%=      5-min Rain = 0
KWT1 092118Z 34007KT 08/M07 A3033 RMK A01 T00751066  RH  036%=      5-min Rain = 0
KWT1 092119Z 33006KT 08/M07 A3033 RMK A01 T00761067  RH  036%=      5-min Rain = 0
KWT1 092120Z 33006KT 08/M06 A3034 RMK A01 T00761063  RH  037%=      5-min Rain = 0
KWT1 092121Z 33004KT 08/M07 A3034 RMK A01 T00761066  RH  036%=      5-min Rain = 0
KWT1 092122Z 33006KT 08/M07 A3034 RMK A01 T00751070  RH  035%=      5-min Rain = 0
KWT1 092123Z 34006KT 08/M06 A3033 RMK A01 T00751064  RH  036%=      5-min Rain = 0
KWT1 092124Z 36006KT 08/M07 A3034 RMK A01 T00761067  RH  036%=      5-min Rain = 0
KWT1 092125Z 00005KT 08/M07 A3033 RMK A01 T00751071  RH  035%=      5-min Rain = 0
KWT1 092126Z 01006KT 08/M07 A3034 RMK A01 T00761066  RH  036%=      5-min Rain = 0
KWT1 092127Z 01005KT 08/M07 A3034 RMK A01 T00771067  RH  035%=      5-min Rain = 0
KWT1 092128Z 01005KT 08/M07 A3034 RMK A01 T00771066  RH  036%=      5-min Rain = 0
KWT1 092129Z 36005KT 08/M07 A3034 RMK A01 T00771067  RH  035%=      5-min Rain = 0
KWT1 092130Z 34007KT 08/M07 A3034 RMK A01 T00771065  RH  036%=      5-min Rain = 0
KWT1 092131Z 34007KT 08/M06 A3034 RMK A01 T00771063  RH  036%=      5-min Rain = 0
KWT1 092132Z 34006KT 08/M06 A3034 RMK A01 T00781063  RH  036%=      5-min Rain = 0
KWT1 092133Z 35006KT 08/M06 A3034 RMK A01 T00771064  RH  036%=      5-min Rain = 0
KWT1 092134Z 35005KT 08/M07 A3034 RMK A01 T00771066  RH  036%=      5-min Rain = 0
KWT1 092135Z 01006KT 08/M07 A3034 RMK A01 T00771067  RH  035%=      5-min Rain = 0
KWT1 092136Z 36007KT 08/M07 A3034 RMK A01 T00761066  RH  036%=      5-min Rain = 0
KWT1 092137Z 34005KT 08/M07 A3034 RMK A01 T00761066  RH  036%=      5-min Rain = 0
KWT1 092138Z 00004KT 08/M06 A3034 RMK A01 T00761062  RH  037%=      5-min Rain = 0
KWT1 092139Z 00004KT 08/M06 A3034 RMK A01 T00791057  RH  038%=      5-min Rain = 0
KWT1 092140Z 01004G9KT 08/M06 A3034 RMK A01 T00791060  RH  037%=      5-min Rain = 0
KWT1 092141Z 00008KT 08/M06 A3034 RMK A01 T00791059  RH  037%=      5-min Rain = 0
KWT1 092142Z 00007KT 08/M06 A3034 RMK A01 T00781062  RH  036%=      5-min Rain = 0
KWT1 092143Z 36005KT 08/M06 A3034 RMK A01 T00771061  RH  037%=      5-min Rain = 0
KWT1 092144Z 01005KT 08/M06 A3034 RMK A01 T00771058  RH  038%=      5-min Rain = 0
KWT1 092145Z 01005KT 08/M06 A3034 RMK A01 T00791058  RH  037%=      5-min Rain = 0
KWT1 092146Z 01005KT 08/M06 A3034 RMK A01 T00791062  RH  036%=      5-min Rain = 0
KWT1 092147Z 35005KT 08/M06 A3034 RMK A01 T00801059  RH  037%=      5-min Rain = 0
KWT1 092148Z 35006KT 08/M06 A3034 RMK A01 T00791060  RH  037%=      5-min Rain = 0
KWT1 092149Z 34006KT 08/M06 A3034 RMK A01 T00791059  RH  037%=      5-min Rain = 0
KWT1 092150Z 34007KT 08/M06 A3034 RMK A01 T00791055  RH  038%=      5-min Rain = 0
KWT1 092151Z 33005KT 08/M06 A3034 RMK A01 T00781060  RH  037%=      5-min Rain = 0
KWT1 092152Z 33004KT 08/M07 A3034 RMK A01 T00771065  RH  036%=      5-min Rain = 0
KWT1 092153Z 36005KT 08/M06 A3034 RMK A01 T00751063  RH  037%=      5-min Rain = 0
KWT1 092154Z 01005KT 08/M06 A3034 RMK A01 T00771061  RH  037%=      5-min Rain = 0
KWT1 092155Z 35004KT 08/M06 A3034 RMK A01 T00771064  RH  036%=      5-min Rain = 0
KWT1 092156Z 34003KT 08/M07 A3034 RMK A01 T00761066  RH  036%=      5-min Rain = 0
KWT1 092157Z 33002KT 08/M06 A3034 RMK A01 T00761061  RH  037%=      5-min Rain = 0
KWT1 092158Z 34005KT 08/M06 A3034 RMK A01 T00781059  RH  037%=      5-min Rain = 0
KWT1 092159Z 33005KT 08/M07 A3034 RMK A01 T00781066  RH  035%=      5-min Rain = 0
KWT1 092200Z 34007KT 08/M07 A3034 RMK A01 T00781065  RH  036%=      5-min Rain = 0
KWT1 092201Z 32006KT 08/M06 A3034 RMK A01 T00771061  RH  037%=      5-min Rain = 0
KWT1 092202Z 33004KT 08/M06 A3034 RMK A01 T00771060  RH  037%=      5-min Rain = 0
KWT1 092203Z 34004KT 08/M06 A3034 RMK A01 T00771060  RH  037%=      5-min Rain = 0
KWT1 092204Z 35006KT 08/M06 A3034 RMK A01 T00771057  RH  038%=      5-min Rain = 0
KWT1 092205Z 34006KT 08/M06 A3034 RMK A01 T00781056  RH  038%=      5-min Rain = 0
KWT1 092206Z 00005KT 08/M06 A3034 RMK A01 T00781059  RH  037%=      5-min Rain = 0
KWT1 092207Z 00006KT 08/M06 A3034 RMK A01 T00781059  RH  037%=      5-min Rain = 0
KWT1 092208Z 01005KT 08/M06 A3034 RMK A01 T00781062  RH  036%=      5-min Rain = 0
KWT1 092209Z 33006KT 08/M06 A3034 RMK A01 T00781059  RH  037%=      5-min Rain = 0
KWT1 092210Z 35006KT 08/M06 A3034 RMK A01 T00791058  RH  037%=      5-min Rain = 0
KWT1 092211Z 36005KT 08/M06 A3034 RMK A01 T00781061  RH  037%=      5-min Rain = 0
KWT1 092212Z 32006KT 08/M06 A3034 RMK A01 T00781056  RH  038%=      5-min Rain = 0
KWT1 092213Z 32005KT 08/M06 A3034 RMK A01 T00781058  RH  038%=      5-min Rain = 0
KWT1 092214Z 32006KT 08/M06 A3034 RMK A01 T00781057  RH  038%=      5-min Rain = 0
KWT1 092215Z 32006KT 08/M05 A3034 RMK A01 T00781053  RH  039%=      5-min Rain = 0
KWT1 092216Z 32005KT 08/M06 A3034 RMK A01 T00781055  RH  038%=      5-min Rain = 0
KWT1 092217Z 33005KT 08/M06 A3034 RMK A01 T00781057  RH  038%=      5-min Rain = 0
KWT1 092218Z 35004KT 08/M06 A3034 RMK A01 T00771058  RH  038%=      5-min Rain = 0
KWT1 092219Z 35004KT 08/M06 A3034 RMK A01 T00771056  RH  038%=      5-min Rain = 0
KWT1 092220Z 35004KT 08/M05 A3034 RMK A01 T00791053  RH  039%=      5-min Rain = 0
KWT1 092221Z 34005KT 08/M06 A3034 RMK A01 T00791058  RH  037%=      5-min Rain = 0
KWT1 092222Z 34006KT 08/M06 A3034 RMK A01 T00791057  RH  038%=      5-min Rain = 0
KWT1 092223Z 33006KT 08/M06 A3034 RMK A01 T00781060  RH  037%=      5-min Rain = 0
KWT1 092224Z 33006KT 08/M06 A3034 RMK A01 T00781062  RH  036%=      5-min Rain = 0
KWT1 092225Z 33006KT 08/M06 A3034 RMK A01 T00771063  RH  036%=      5-min Rain = 0
KWT1 092226Z 33006KT 08/M06 A3034 RMK A01 T00761060  RH  037%=      5-min Rain = 0
KWT1 092227Z 33006KT 08/M06 A3034 RMK A01 T00761059  RH  038%=      5-min Rain = 0
KWT1 092228Z 33006KT 08/M06 A3034 RMK A01 T00761058  RH  038%=      5-min Rain = 0
KWT1 092229Z 33007KT 08/M06 A3034 RMK A01 T00761058  RH  038%=      5-min Rain = 0
KWT1 092230Z 34007KT 08/M06 A3034 RMK A01 T00761059  RH  038%=      5-min Rain = 0
KWT1 092231Z 33006KT 08/M06 A3034 RMK A01 T00761057  RH  038%=      5-min Rain = 0
KWT1 092232Z 34006KT 08/M05 A3034 RMK A01 T00761054  RH  039%=      5-min Rain = 0
KWT1 092233Z 34006KT 08/M06 A3034 RMK A01 T00761055  RH  039%=      5-min Rain = 0
KWT1 092234Z 34005KT 08/M06 A3034 RMK A01 T00761058  RH  038%=      5-min Rain = 0
KWT1 092235Z 33005KT 08/M06 A3034 RMK A01 T00761059  RH  038%=      5-min Rain = 0
KWT1 092236Z 33005KT 08/M06 A3034 RMK A01 T00761061  RH  037%=      5-min Rain = 0
KWT1 092237Z 34004KT 08/M06 A3034 RMK A01 T00751060  RH  038%=      5-min Rain = 0
KWT1 092238Z 34004KT 08/M06 A3034 RMK A01 T00761057  RH  039%=      5-min Rain = 0
KWT1 092239Z 34004KT 08/M06 A3034 RMK A01 T00761058  RH  038%=      5-min Rain = 0
KWT1 092240Z 35004KT 08/M06 A3034 RMK A01 T00761058  RH  038%=      5-min Rain = 0
KWT1 092241Z 35004KT 08/M06 A3034 RMK A01 T00761056  RH  038%=      5-min Rain = 0
KWT1 092242Z 34005KT 08/M06 A3034 RMK A01 T00761058  RH  038%=      5-min Rain = 0
KWT1 092243Z 34005KT 08/M06 A3034 RMK A01 T00761057  RH  038%=      5-min Rain = 0
KWT1 092244Z 34005KT 08/M06 A3034 RMK A01 T00761056  RH  039%=      5-min Rain = 0
KWT1 092245Z 36005KT 08/M05 A3034 RMK A01 T00761053  RH  040%=      5-min Rain = 0
KWT1 092246Z 00004KT 08/M06 A3034 RMK A01 T00761056  RH  039%=      5-min Rain = 0
KWT1 092247Z 36004KT 08/M06 A3034 RMK A01 T00751056  RH  039%=      5-min Rain = 0
KWT1 092248Z 34004KT 08/M05 A3034 RMK A01 T00751052  RH  040%=      5-min Rain = 0
KWT1 092249Z 33005KT 08/M05 A3034 RMK A01 T00751051  RH  040%=      5-min Rain = 0
KWT1 092250Z 36005KT 08/M05 A3034 RMK A01 T00751052  RH  040%=      5-min Rain = 0
KWT1 092251Z 33005KT 08/M06 A3034 RMK A01 T00761055  RH  039%=      5-min Rain = 0
KWT1 092252Z 34005KT 08/M06 A3034 RMK A01 T00751059  RH  038%=      5-min Rain = 0
KWT1 092253Z 33004KT 07/M06 A3034 RMK A01 T00741060  RH  038%=      5-min Rain = 0
KWT1 092254Z 33004KT 07/M06 A3034 RMK A01 T00741058  RH  039%=      5-min Rain = 0
KWT1 092255Z 35005KT 07/M06 A3035 RMK A01 T00741057  RH  039%=      5-min Rain = 0
KWT1 092256Z 36006KT 07/M06 A3035 RMK A01 T00741056  RH  039%=      5-min Rain = 0
KWT1 092257Z 34007KT 07/M06 A3035 RMK A01 T00741057  RH  039%=      5-min Rain = 0
KWT1 092258Z 34006KT 07/M06 A3035 RMK A01 T00731058  RH  039%=      5-min Rain = 0
KWT1 092259Z 35006KT 07/M05 A3035 RMK A01 T00731054  RH  040%=      5-min Rain = 0
KWT1 092300Z 35005KT 07/M06 A3035 RMK A01 T00721056  RH  040%=      5-min Rain = 0
KWT1 092301Z 36006KT 07/M06 A3035 RMK A01 T00721056  RH  040%=      5-min Rain = 0
KWT1 092302Z 00006KT 07/M06 A3035 RMK A01 T00721055  RH  040%=      5-min Rain = 0
KWT1 092303Z 00005KT 07/M06 A3035 RMK A01 T00711058  RH  039%=      5-min Rain = 0
KWT1 092304Z 35005KT 07/M06 A3035 RMK A01 T00711058  RH  039%=      5-min Rain = 0
KWT1 092305Z 34007KT 07/M06 A3035 RMK A01 T00711057  RH  040%=      5-min Rain = 0
KWT1 092306Z 35007KT 07/M06 A3035 RMK A01 T00711058  RH  040%=      5-min Rain = 0
KWT1 092307Z 35007KT 07/M06 A3035 RMK A01 T00701059  RH  039%=      5-min Rain = 0
KWT1 092308Z 34006KT 07/M06 A3035 RMK A01 T00701058  RH  040%=      5-min Rain = 0
KWT1 092309Z 34006KT 07/M06 A3035 RMK A01 T00691056  RH  040%=      5-min Rain = 0
KWT1 092310Z 34006KT 07/M06 A3035 RMK A01 T00691056  RH  041%=      5-min Rain = 0
KWT1 092311Z 34005KT 07/M05 A3035 RMK A01 T00691054  RH  041%=      5-min Rain = 0
KWT1 092312Z 34005KT 07/M05 A3035 RMK A01 T00691053  RH  041%=      5-min Rain = 0
KWT1 092313Z 34005KT 07/M05 A3035 RMK A01 T00691053  RH  042%=      5-min Rain = 0
KWT1 092314Z 34004KT 07/M05 A3035 RMK A01 T00691051  RH  042%=      5-min Rain = 0
KWT1 092315Z 33004KT 07/M05 A3035 RMK A01 T00681050  RH  043%=      5-min Rain = 0
KWT1 092316Z 33004KT 07/M05 A3035 RMK A01 T00671049  RH  043%=      5-min Rain = 0
KWT1 092317Z 34004KT 07/M05 A3035 RMK A01 T00671048  RH  044%=      5-min Rain = 0
KWT1 092318Z 35004KT 07/M05 A3035 RMK A01 T00661049  RH  044%=      5-min Rain = 0
KWT1 092319Z 35005KT 07/M05 A3035 RMK A01 T00661048  RH  044%=      5-min Rain = 0
KWT1 092320Z 00005KT 07/M05 A3035 RMK A01 T00651048  RH  044%=      5-min Rain = 0
KWT1 092321Z 00005KT 06/M05 A3035 RMK A01 T00641050  RH  044%=      5-min Rain = 0
KWT1 092322Z 00005KT 06/M05 A3035 RMK A01 T00641051  RH  044%=      5-min Rain = 0
KWT1 092323Z 01004KT 06/M06 A3035 RMK A01 T00631056  RH  042%=      5-min Rain = 0
KWT1 092324Z 01004KT 06/M06 A3035 RMK A01 T00631057  RH  042%=      5-min Rain = 0
KWT1 092325Z 01005KT 06/M06 A3035 RMK A01 T00631059  RH  041%=      5-min Rain = 0
KWT1 092326Z 00006KT 06/M06 A3035 RMK A01 T00631060  RH  041%=      5-min Rain = 0
KWT1 092327Z 36005KT 06/M06 A3035 RMK A01 T00621060  RH  041%=      5-min Rain = 0
KWT1 092328Z 00006KT 06/M06 A3035 RMK A01 T00611059  RH  042%=      5-min Rain = 0
KWT1 092329Z 00005KT 06/M06 A3035 RMK A01 T00611059  RH  042%=      5-min Rain = 0
KWT1 092330Z 00005KT 06/M06 A3035 RMK A01 T00591059  RH  042%=      5-min Rain = 0
KWT1 092331Z 00005KT 06/M06 A3035 RMK A01 T00581059  RH  043%=      5-min Rain = 0
KWT1 092332Z 00005KT 06/M06 A3035 RMK A01 T00571058  RH  043%=      5-min Rain = 0
KWT1 092333Z 01005KT 06/M06 A3035 RMK A01 T00561058  RH  044%=      5-min Rain = 0
KWT1 092334Z 00005KT 06/M06 A3035 RMK A01 T00551058  RH  044%=      5-min Rain = 0
KWT1 092335Z 00005KT 05/M06 A3035 RMK A01 T00541058  RH  044%=      5-min Rain = 0
KWT1 092336Z 00005KT 05/M06 A3035 RMK A01 T00541059  RH  044%=      5-min Rain = 0
KWT1 092337Z 01006KT 05/M06 A3035 RMK A01 T00541060  RH  044%=      5-min Rain = 0
KWT1 092338Z 01005KT 05/M06 A3035 RMK A01 T00541060  RH  044%=      5-min Rain = 0
KWT1 092339Z 01005KT 05/M06 A3035 RMK A01 T00541060  RH  044%=      5-min Rain = 0
KWT1 092340Z 01005KT 05/M06 A3035 RMK A01 T00531060  RH  044%=      5-min Rain = 0
KWT1 092341Z 01005KT 05/M06 A3035 RMK A01 T00521060  RH  044%=      5-min Rain = 0
KWT1 092342Z 01005KT 05/M06 A3035 RMK A01 T00511059  RH  045%=      5-min Rain = 0
KWT1 092343Z 01005KT 05/M06 A3035 RMK A01 T00511060  RH  044%=      5-min Rain = 0
KWT1 092344Z 01004KT 05/M06 A3035 RMK A01 T00511061  RH  044%=      5-min Rain = 0
KWT1 092345Z 01004KT 05/M06 A3035 RMK A01 T00511060  RH  044%=      5-min Rain = 0
KWT1 092346Z 01004KT 05/M06 A3035 RMK A01 T00511060  RH  045%=      5-min Rain = 0
KWT1 092347Z 01004KT 05/M06 A3035 RMK A01 T00501060  RH  045%=      5-min Rain = 0
KWT1 092348Z 01004KT 05/M06 A3035 RMK A01 T00501061  RH  045%=      5-min Rain = 0
KWT1 092349Z 01004KT 05/M06 A3035 RMK A01 T00501061  RH  044%=      5-min Rain = 0
KWT1 092350Z 01004KT 05/M06 A3035 RMK A01 T00501061  RH  044%=      5-min Rain = 0
KWT1 092351Z 01004KT 05/M06 A3035 RMK A01 T00501061  RH  045%=      5-min Rain = 0
KWT1 092352Z 01004KT 05/M06 A3035 RMK A01 T00501061  RH  045%=      5-min Rain = 0
KWT1 092353Z 01004KT 05/M06 A3035 RMK A01 T00501061  RH  045%=      5-min Rain = 0
KWT1 092354Z 01004KT 05/M06 A3035 RMK A01 T00491061  RH  045%=      5-min Rain = 0
KWT1 092355Z 01004KT 05/M06 A3035 RMK A01 T00491061  RH  045%=      5-min Rain = 0
KWT1 092356Z 02004KT 05/M06 A3035 RMK A01 T00491061  RH  045%=      5-min Rain = 0
KWT1 092357Z 02004KT 05/M06 A3035 RMK A01 T00481061  RH  045%=      5-min Rain = 0
KWT1 092358Z 02003KT 05/M06 A3035 RMK A01 T00481061  RH  045%=      5-min Rain = 0
KWT1 092359Z 02003KT 05/M06 A3035 RMK A01 T00481061  RH  045%=      5-min Rain = 0
KWT1 100000Z 02003KT 05/M06 A3035 RMK A01 T00481061  RH  045%=      5-min Rain = 0
KWT1 100001Z 02003KT 05/M06 A3035 RMK A01 T00481061  RH  045%=      5-min Rain = 0
KWT1 100002Z 03003KT 05/M06 A3035 RMK A01 T00481061  RH  045%=      5-min Rain = 0
KWT1 100003Z 03003KT 05/M06 A3035 RMK A01 T00491060  RH  045%=      5-min Rain = 0
KWT1 100004Z 02003KT 05/M06 A3035 RMK A01 T00491060  RH  045%=      5-min Rain = 0
KWT1 100005Z 02003KT 05/M06 A3035 RMK A01 T00481059  RH  046%=      5-min Rain = 0
KWT1 100006Z 02003KT 05/M06 A3036 RMK A01 T00491058  RH  046%=      5-min Rain = 0
KWT1 100007Z 02003KT 05/M06 A3036 RMK A01 T00491058  RH  046%=      5-min Rain = 0
KWT1 100008Z 02003KT 05/M06 A3036 RMK A01 T00481058  RH  046%=      5-min Rain = 0
KWT1 100009Z 03003KT 05/M06 A3036 RMK A01 T00481057  RH  046%=      5-min Rain = 0
KWT1 100010Z 02003KT 05/M06 A3036 RMK A01 T00481057  RH  046%=      5-min Rain = 0
KWT1 100011Z 03003KT 05/M06 A3036 RMK A01 T00481057  RH  047%=      5-min Rain = 0
KWT1 100012Z 03003KT 05/M06 A3036 RMK A01 T00481057  RH  047%=      5-min Rain = 0
KWT1 100013Z 02003KT 05/M06 A3036 RMK A01 T00471057  RH  047%=      5-min Rain = 0
KWT1 100014Z 02003KT 05/M06 A3036 RMK A01 T00481056  RH  047%=      5-min Rain = 0
KWT1 100015Z 02002KT 05/M06 A3036 RMK A01 T00471056  RH  047%=      5-min Rain = 0
KWT1 100016Z 02003KT 05/M06 A3036 RMK A01 T00471056  RH  047%=      5-min Rain = 0
KWT1 100017Z 02003KT 05/M06 A3036 RMK A01 T00471056  RH  047%=      5-min Rain = 0
KWT1 100018Z 01003KT 05/M06 A3036 RMK A01 T00461056  RH  048%=      5-min Rain = 0
KWT1 100019Z 01003KT 05/M06 A3036 RMK A01 T00461055  RH  048%=      5-min Rain = 0
KWT1 100020Z 01003KT 05/M05 A3036 RMK A01 T00461054  RH  048%=      5-min Rain = 0
KWT1 100021Z 01002KT 05/M05 A3036 RMK A01 T00461054  RH  048%=      5-min Rain = 0
KWT1 100022Z 01003KT 05/M05 A3036 RMK A01 T00461054  RH  049%=      5-min Rain = 0
KWT1 100023Z 01002KT 05/M05 A3036 RMK A01 T00451053  RH  049%=      5-min Rain = 0
KWT1 100024Z 01002KT 05/M05 A3036 RMK A01 T00451053  RH  049%=      5-min Rain = 0
KWT1 100025Z 00002KT 04/M05 A3036 RMK A01 T00441053  RH  049%=      5-min Rain = 0
KWT1 100026Z 00002KT 04/M05 A3036 RMK A01 T00441053  RH  049%=      5-min Rain = 0
KWT1 100027Z 00003KT 04/M05 A3036 RMK A01 T00441053  RH  049%=      5-min Rain = 0
KWT1 100028Z 00003KT 04/M05 A3036 RMK A01 T00441053  RH  049%=      5-min Rain = 0
KWT1 100029Z 00003KT 04/M05 A3036 RMK A01 T00441053  RH  049%=      5-min Rain = 0
KWT1 100030Z 01003KT 04/M05 A3036 RMK A01 T00441053  RH  049%=      5-min Rain = 0
KWT1 100031Z 01004KT 04/M05 A3036 RMK A01 T00431053  RH  050%=      5-min Rain = 0
KWT1 100032Z 01004KT 04/M05 A3036 RMK A01 T00441052  RH  050%=      5-min Rain = 0
KWT1 100033Z 01004KT 04/M05 A3036 RMK A01 T00431052  RH  050%=      5-min Rain = 0
KWT1 100034Z 01004KT 04/M05 A3036 RMK A01 T00421051  RH  051%=      5-min Rain = 0
KWT1 100035Z 01004KT 04/M05 A3036 RMK A01 T00421050  RH  051%=      5-min Rain = 0
KWT1 100036Z 02004KT 04/M05 A3036 RMK A01 T00411050  RH  051%=      5-min Rain = 0
KWT1 100037Z 02004KT 04/M05 A3036 RMK A01 T00411050  RH  052%=      5-min Rain = 0
KWT1 100038Z 02004KT 04/M05 A3036 RMK A01 T00401050  RH  052%=      5-min Rain = 0
KWT1 100039Z 02004KT 04/M05 A3036 RMK A01 T00391049  RH  053%=      5-min Rain = 0
KWT1 100040Z 02004KT 04/M05 A3037 RMK A01 T00391049  RH  053%=      5-min Rain = 0
KWT1 100041Z 02004KT 04/M05 A3037 RMK A01 T00381048  RH  053%=      5-min Rain = 0
KWT1 100042Z 02004KT 04/M05 A3037 RMK A01 T00371048  RH  054%=      5-min Rain = 0
KWT1 100043Z 02004KT 04/M05 A3037 RMK A01 T00371048  RH  054%=      5-min Rain = 0
KWT1 100044Z 02004KT 04/M05 A3037 RMK A01 T00361048  RH  054%=      5-min Rain = 0
KWT1 100045Z 02004KT 04/M05 A3037 RMK A01 T00361047  RH  055%=      5-min Rain = 0
KWT1 100046Z 02004KT 04/M05 A3037 RMK A01 T00361046  RH  055%=      5-min Rain = 0
KWT1 100047Z 02004KT 04/M05 A3037 RMK A01 T00351046  RH  055%=      5-min Rain = 0
KWT1 100048Z 02004KT 03/M05 A3037 RMK A01 T00341046  RH  055%=      5-min Rain = 0
KWT1 100049Z 02004KT 04/M05 A3037 RMK A01 T00351046  RH  056%=      5-min Rain = 0
KWT1 100050Z 02004KT 03/M05 A3037 RMK A01 T00341046  RH  056%=      5-min Rain = 0
KWT1 100051Z 02004KT 03/M05 A3037 RMK A01 T00341046  RH  056%=      5-min Rain = 0
KWT1 100052Z 02004KT 03/M05 A3037 RMK A01 T00341045  RH  056%=      5-min Rain = 0
KWT1 100053Z 01005KT 03/M05 A3037 RMK A01 T00341045  RH  056%=      5-min Rain = 0
KWT1 100054Z 01005KT 03/M05 A3037 RMK A01 T00331045  RH  057%=      5-min Rain = 0
KWT1 100055Z 02005KT 03/M05 A3037 RMK A01 T00321045  RH  057%=      5-min Rain = 0
KWT1 100056Z 02005KT 03/M05 A3037 RMK A01 T00321045  RH  057%=      5-min Rain = 0
KWT1 100057Z 02005KT 03/M05 A3037 RMK A01 T00311045  RH  057%=      5-min Rain = 0
KWT1 100058Z 02005KT 03/M05 A3037 RMK A01 T00301045  RH  058%=      5-min Rain = 0
KWT1 100059Z 01005KT 03/M05 A3037 RMK A01 T00301045  RH  058%=      5-min Rain = 0
KWT1 100100Z 02005KT 03/M05 A3037 RMK A01 T00291045  RH  058%=      5-min Rain = 0
KWT1 100101Z 02005KT 03/M05 A3037 RMK A01 T00291045  RH  058%=      5-min Rain = 0
KWT1 100102Z 02005KT 03/M05 A3037 RMK A01 T00291045  RH  058%=      5-min Rain = 0
KWT1 100103Z 03005KT 03/M05 A3037 RMK A01 T00281045  RH  059%=      5-min Rain = 0
KWT1 100104Z 02004KT 03/M04 A3037 RMK A01 T00281044  RH  059%=      5-min Rain = 0
KWT1 100105Z 03004KT 03/M05 A3037 RMK A01 T00271045  RH  059%=      5-min Rain = 0
KWT1 100106Z 02004KT 03/M05 A3037 RMK A01 T00271045  RH  059%=      5-min Rain = 0
KWT1 100107Z 02004KT 03/M05 A3037 RMK A01 T00271045  RH  059%=      5-min Rain = 0
KWT1 100108Z 02004KT 03/M05 A3037 RMK A01 T00271045  RH  059%=      5-min Rain = 0
KWT1 100109Z 01004KT 03/M05 A3037 RMK A01 T00271045  RH  059%=      5-min Rain = 0
KWT1 100110Z 01004KT 03/M05 A3037 RMK A01 T00271045  RH  059%=      5-min Rain = 0
KWT1 100111Z 01004KT 03/M05 A3037 RMK A01 T00271046  RH  059%=      5-min Rain = 0
KWT1 100112Z 01004KT 03/M05 A3037 RMK A01 T00271046  RH  059%=      5-min Rain = 0
KWT1 100113Z 01005KT 03/M05 A3037 RMK A01 T00271045  RH  059%=      5-min Rain = 0
KWT1 100114Z 01004KT 03/M05 A3037 RMK A01 T00271045  RH  059%=      5-min Rain = 0
KWT1 100115Z 01004KT 03/M05 A3037 RMK A01 T00261045  RH  059%=      5-min Rain = 0
KWT1 100116Z 01004KT 03/M05 A3037 RMK A01 T00251045  RH  060%=      5-min Rain = 0
KWT1 100117Z 01004KT 03/M05 A3037 RMK A01 T00251045  RH  060%=      5-min Rain = 0
KWT1 100118Z 01004KT 03/M05 A3037 RMK A01 T00251046  RH  060%=      5-min Rain = 0
KWT1 100119Z 01004KT 03/M05 A3037 RMK A01 T00251046  RH  060%=      5-min Rain = 0
KWT1 100120Z 01004KT 02/M05 A3037 RMK A01 T00241046  RH  060%=      5-min Rain = 0
KWT1 100121Z 01003KT 02/M05 A3037 RMK A01 T00241046  RH  060%=      5-min Rain = 0
KWT1 100122Z 01003KT 02/M05 A3037 RMK A01 T00241045  RH  060%=      5-min Rain = 0
KWT1 100123Z 01003KT 02/M05 A3037 RMK A01 T00241045  RH  060%=      5-min Rain = 0
KWT1 100124Z 01003KT 02/M05 A3037 RMK A01 T00241045  RH  060%=      5-min Rain = 0
KWT1 100125Z 01003KT 02/M05 A3037 RMK A01 T00231046  RH  060%=      5-min Rain = 0
KWT1 100126Z 01003KT 02/M05 A3037 RMK A01 T00231046  RH  060%=      5-min Rain = 0
KWT1 100127Z 01003KT 02/M05 A3037 RMK A01 T00241046  RH  060%=      5-min Rain = 0
KWT1 100128Z 01003KT 02/M05 A3037 RMK A01 T00231046  RH  060%=      5-min Rain = 0
KWT1 100129Z 01003KT 02/M05 A3037 RMK A01 T00231047  RH  060%=      5-min Rain = 0
KWT1 100130Z 01003KT 02/M05 A3037 RMK A01 T00241047  RH  060%=      5-min Rain = 0
KWT1 100131Z 00003KT 02/M05 A3037 RMK A01 T00241047  RH  060%=      5-min Rain = 0
KWT1 100132Z 01003KT 02/M05 A3037 RMK A01 T00241047  RH  060%=      5-min Rain = 0
KWT1 100133Z 01003KT 02/M05 A3037 RMK A01 T00241047  RH  060%=      5-min Rain = 0
KWT1 100134Z 01003KT 02/M05 A3037 RMK A01 T00241046  RH  060%=      5-min Rain = 0
KWT1 100135Z 01003KT 02/M05 A3037 RMK A01 T00241046  RH  060%=      5-min Rain = 0
KWT1 100136Z 02003KT 02/M05 A3037 RMK A01 T00231046  RH  060%=      5-min Rain = 0
KWT1 100137Z 02003KT 02/M05 A3037 RMK A01 T00231046  RH  060%=      5-min Rain = 0
KWT1 100138Z 02003KT 02/M05 A3037 RMK A01 T00221047  RH  060%=      5-min Rain = 0
KWT1 100139Z 02003KT 02/M05 A3037 RMK A01 T00221047  RH  060%=      5-min Rain = 0
KWT1 100140Z 02003KT 02/M05 A3037 RMK A01 T00221047  RH  060%=      5-min Rain = 0
KWT1 100141Z 02003KT 02/M05 A3037 RMK A01 T00221047  RH  060%=      5-min Rain = 0
KWT1 100142Z 02003KT 02/M05 A3037 RMK A01 T00211047  RH  060%=      5-min Rain = 0
KWT1 100143Z 02003KT 02/M05 A3037 RMK A01 T00221047  RH  060%=      5-min Rain = 0
KWT1 100144Z 03002KT 02/M05 A3037 RMK A01 T00211047  RH  060%=      5-min Rain = 0
KWT1 100145Z 03002KT 02/M05 A3037 RMK A01 T00221047  RH  060%=      5-min Rain = 0
KWT1 100146Z 03002KT 02/M05 A3037 RMK A01 T00211048  RH  060%=      5-min Rain = 0
KWT1 100147Z 04002KT 02/M05 A3037 RMK A01 T00211047  RH  060%=      5-min Rain = 0
KWT1 100148Z 04002KT 02/M05 A3037 RMK A01 T00221047  RH  060%=      5-min Rain = 0
KWT1 100149Z 04002KT 02/M05 A3037 RMK A01 T00211048  RH  060%=      5-min Rain = 0
KWT1 100150Z 04002KT 02/M05 A3037 RMK A01 T00221047  RH  060%=      5-min Rain = 0
KWT1 100151Z 03002KT 02/M05 A3037 RMK A01 T00221047  RH  060%=      5-min Rain = 0
KWT1 100152Z 03002KT 02/M05 A3037 RMK A01 T00221048  RH  060%=      5-min Rain = 0
KWT1 100153Z 03002KT 02/M05 A3037 RMK A01 T00221048  RH  060%=      5-min Rain = 0
KWT1 100154Z 03003KT 02/M05 A3037 RMK A01 T00221048  RH  060%=      5-min Rain = 0
KWT1 100155Z 03002KT 02/M05 A3037 RMK A01 T00221048  RH  060%=      5-min Rain = 0
KWT1 100156Z 03003KT 02/M05 A3037 RMK A01 T00221048  RH  060%=      5-min Rain = 0
KWT1 100157Z 03003KT 02/M05 A3037 RMK A01 T00231048  RH  060%=      5-min Rain = 0
KWT1 100158Z 03003KT 02/M05 A3037 RMK A01 T00231048  RH  060%=      5-min Rain = 0
KWT1 100159Z 03003KT 02/M05 A3037 RMK A01 T00231048  RH  060%=      5-min Rain = 0
KWT1 100200Z 03003KT 02/M05 A3037 RMK A01 T00231048  RH  059%=      5-min Rain = 0
KWT1 100201Z 02003KT 02/M05 A3037 RMK A01 T00231048  RH  059%=      5-min Rain = 0
KWT1 100202Z 02003KT 02/M05 A3037 RMK A01 T00231048  RH  059%=      5-min Rain = 0
KWT1 100203Z 02003KT 02/M05 A3037 RMK A01 T00231048  RH  059%=      5-min Rain = 0
KWT1 100204Z 01003KT 02/M05 A3038 RMK A01 T00231048  RH  060%=      5-min Rain = 0
KWT1 100205Z 01003KT 02/M05 A3038 RMK A01 T00221047  RH  060%=      5-min Rain = 0
KWT1 100206Z 00003KT 02/M05 A3038 RMK A01 T00211047  RH  060%=      5-min Rain = 0
KWT1 100207Z 00003KT 02/M05 A3038 RMK A01 T00211047  RH  061%=      5-min Rain = 0
KWT1 100208Z 00003KT 02/M05 A3038 RMK A01 T00201048  RH  061%=      5-min Rain = 0
KWT1 100209Z 01002KT 02/M05 A3038 RMK A01 T00191048  RH  061%=      5-min Rain = 0
KWT1 100210Z 01002KT 02/M05 A3037 RMK A01 T00191048  RH  061%=      5-min Rain = 0
KWT1 100211Z 01002KT 02/M05 A3037 RMK A01 T00191048  RH  061%=      5-min Rain = 0
KWT1 100212Z 01002KT 02/M05 A3037 RMK A01 T00191048  RH  061%=      5-min Rain = 0
KWT1 100213Z 00003KT 02/M05 A3037 RMK A01 T00201048  RH  061%=      5-min Rain = 0
KWT1 100214Z 00003KT 02/M05 A3038 RMK A01 T00201048  RH  061%=      5-min Rain = 0
KWT1 100215Z 01003KT 02/M05 A3038 RMK A01 T00201048  RH  061%=      5-min Rain = 0
KWT1 100216Z 01003KT 02/M05 A3038 RMK A01 T00201048  RH  061%=      5-min Rain = 0
KWT1 100217Z 01003KT 02/M05 A3037 RMK A01 T00191048  RH  061%=      5-min Rain = 0
KWT1 100218Z 01003KT 02/M05 A3037 RMK A01 T00191048  RH  061%=      5-min Rain = 0
KWT1 100219Z 01003KT 02/M05 A3037 RMK A01 T00181049  RH  061%=      5-min Rain = 0
KWT1 100220Z 02002KT 02/M05 A3037 RMK A01 T00181049  RH  061%=      5-min Rain = 0
KWT1 100221Z 02002KT 02/M05 A3037 RMK A01 T00181049  RH  061%=      5-min Rain = 0
KWT1 100222Z 02002KT 02/M05 A3037 RMK A01 T00181050  RH  061%=      5-min Rain = 0
KWT1 100223Z 02002KT 02/M05 A3037 RMK A01 T00181050  RH  061%=      5-min Rain = 0
KWT1 100224Z 02002KT 02/M05 A3037 RMK A01 T00181050  RH  060%=      5-min Rain = 0
KWT1 100225Z 02002KT 02/M05 A3037 RMK A01 T00191050  RH  060%=      5-min Rain = 0
KWT1 100226Z 01002KT 02/M05 A3037 RMK A01 T00191050  RH  060%=      5-min Rain = 0
KWT1 100227Z 01002KT 02/M05 A3037 RMK A01 T00191050  RH  060%=      5-min Rain = 0
KWT1 100228Z 00003KT 02/M05 A3037 RMK A01 T00201050  RH  060%=      5-min Rain = 0
KWT1 100229Z 00003KT 02/M05 A3037 RMK A01 T00191050  RH  060%=      5-min Rain = 0
KWT1 100230Z 00003KT 02/M05 A3038 RMK A01 T00191049  RH  061%=      5-min Rain = 0
KWT1 100231Z 00004KT 02/M05 A3038 RMK A01 T00181050  RH  061%=      5-min Rain = 0
KWT1 100232Z 00004KT 02/M05 A3038 RMK A01 T00171050  RH  061%=      5-min Rain = 0
KWT1 100233Z 00004KT 02/M05 A3038 RMK A01 T00171050  RH  061%=      5-min Rain = 0
KWT1 100234Z 00004KT 02/M05 A3038 RMK A01 T00151050  RH  062%=      5-min Rain = 0
KWT1 100235Z 36004KT 01/M05 A3038 RMK A01 T00141049  RH  063%=      5-min Rain = 0
KWT1 100236Z 00004KT 01/M05 A3038 RMK A01 T00131049  RH  063%=      5-min Rain = 0
KWT1 100237Z 00004KT 01/M05 A3038 RMK A01 T00131049  RH  063%=      5-min Rain = 0
KWT1 100238Z 00004KT 01/M05 A3038 RMK A01 T00121049  RH  064%=      5-min Rain = 0
KWT1 100239Z 00004KT 01/M05 A3038 RMK A01 T00111048  RH  064%=      5-min Rain = 0
KWT1 100240Z 00004KT 01/M05 A3038 RMK A01 T00111048  RH  065%=      5-min Rain = 0
KWT1 100241Z 00004KT 01/M05 A3038 RMK A01 T00111048  RH  065%=      5-min Rain = 0
KWT1 100242Z 36005KT 01/M05 A3038 RMK A01 T00101048  RH  065%=      5-min Rain = 0
KWT1 100243Z 36005KT 01/M05 A3038 RMK A01 T00101048  RH  066%=      5-min Rain = 0
KWT1 100244Z 36005KT 01/M05 A3039 RMK A01 T00091048  RH  066%=      5-min Rain = 0
KWT1 100245Z 36005KT 01/M05 A3039 RMK A01 T00081048  RH  066%=      5-min Rain = 0
KWT1 100246Z 36005KT 01/M05 A3039 RMK A01 T00071047  RH  067%=      5-min Rain = 0
KWT1 100247Z 35005KT 01/M05 A3039 RMK A01 T00061047  RH  067%=      5-min Rain = 0
KWT1 100248Z 35005KT 01/M05 A3039 RMK A01 T00061046  RH  068%=      5-min Rain = 0
KWT1 100249Z 35005KT 01/M05 A3039 RMK A01 T00071046  RH  068%=      5-min Rain = 0
KWT1 100250Z 35005KT 01/M05 A3039 RMK A01 T00061046  RH  068%=      5-min Rain = 0
KWT1 100251Z 35005KT 01/M05 A3039 RMK A01 T00071047  RH  067%=      5-min Rain = 0
KWT1 100252Z 35005KT 01/M05 A3039 RMK A01 T00071047  RH  067%=      5-min Rain = 0
KWT1 100253Z 35005KT 01/M05 A3039 RMK A01 T00071048  RH  067%=      5-min Rain = 0
KWT1 100254Z 35004KT 01/M05 A3039 RMK A01 T00071048  RH  066%=      5-min Rain = 0
KWT1 100255Z 35004KT 01/M05 A3039 RMK A01 T00081048  RH  066%=      5-min Rain = 0
KWT1 100256Z 35004KT 01/M05 A3039 RMK A01 T00081048  RH  066%=      5-min Rain = 0
KWT1 100257Z 35004KT 01/M05 A3039 RMK A01 T00091048  RH  066%=      5-min Rain = 0
KWT1 100258Z 35004KT 01/M05 A3039 RMK A01 T00091048  RH  066%=      5-min Rain = 0
KWT1 100259Z 35005KT 01/M05 A3039 RMK A01 T00101048  RH  065%=      5-min Rain = 0
KWT1 100300Z 35005KT 01/M05 A3039 RMK A01 T00111048  RH  065%=      5-min Rain = 0
KWT1 100301Z 35004KT 01/M05 A3039 RMK A01 T00101048  RH  065%=      5-min Rain = 0
KWT1 100302Z 35004KT 01/M05 A3039 RMK A01 T00101048  RH  065%=      5-min Rain = 0
KWT1 100303Z 34004KT 01/M05 A3039 RMK A01 T00101049  RH  065%=      5-min Rain = 0
KWT1 100304Z 34004KT 01/M05 A3039 RMK A01 T00091049  RH  065%=      5-min Rain = 0
KWT1 100305Z 34003KT 01/M05 A3039 RMK A01 T00091049  RH  065%=      5-min Rain = 0
KWT1 100306Z 33003KT 01/M05 A3039 RMK A01 T00101049  RH  065%=      5-min Rain = 0
KWT1 100307Z 33003KT 01/M05 A3039 RMK A01 T00091049  RH  065%=      5-min Rain = 0
KWT1 100308Z 33003KT 01/M05 A3039 RMK A01 T00091048  RH  065%=      5-min Rain = 0
KWT1 100309Z 33003KT 01/M05 A3039 RMK A01 T00091048  RH  066%=      5-min Rain = 0
KWT1 100310Z 33003KT 01/M05 A3039 RMK A01 T00091047  RH  066%=      5-min Rain = 0
KWT1 100311Z 33003KT 01/M05 A3039 RMK A01 T00091047  RH  066%=      5-min Rain = 0
KWT1 100312Z 33003KT 01/M05 A3038 RMK A01 T00091047  RH  066%=      5-min Rain = 0
KWT1 100313Z 33003KT 01/M05 A3039 RMK A01 T00091046  RH  067%=      5-min Rain = 0
KWT1 100314Z 33003KT 01/M05 A3039 RMK A01 T00091046  RH  067%=      5-min Rain = 0
KWT1 100315Z 33003KT 01/M05 A3039 RMK A01 T00091046  RH  067%=      5-min Rain = 0
KWT1 100316Z 33004KT 01/M05 A3039 RMK A01 T00091045  RH  067%=      5-min Rain = 0
KWT1 100317Z 33003KT 01/M05 A3039 RMK A01 T00081045  RH  068%=      5-min Rain = 0
KWT1 100318Z 33004KT 01/M05 A3039 RMK A01 T00081045  RH  068%=      5-min Rain = 0
KWT1 100319Z 33004KT 01/M05 A3039 RMK A01 T00071045  RH  068%=      5-min Rain = 0
KWT1 100320Z 34005KT 01/M04 A3039 RMK A01 T00071044  RH  069%=      5-min Rain = 0
KWT1 100321Z 34005KT 01/M04 A3039 RMK A01 T00061044  RH  069%=      5-min Rain = 0
KWT1 100322Z 34006KT 01/M04 A3039 RMK A01 T00061043  RH  070%=      5-min Rain = 0
KWT1 100323Z 34006KT 01/M04 A3039 RMK A01 T00061042  RH  070%=      5-min Rain = 0
KWT1 100324Z 33005KT 01/M04 A3039 RMK A01 T00061042  RH  070%=      5-min Rain = 0
KWT1 100325Z 33005KT 01/M04 A3039 RMK A01 T00061042  RH  070%=      5-min Rain = 0
KWT1 100326Z 33005KT 01/M04 A3039 RMK A01 T00051043  RH  070%=      5-min Rain = 0
KWT1 100327Z 33005KT 01/M04 A3039 RMK A01 T00051042  RH  071%=      5-min Rain = 0
KWT1 100328Z 34005KT 00/M04 A3039 RMK A01 T00041043  RH  071%=      5-min Rain = 0
KWT1 100329Z 33005KT 00/M04 A3039 RMK A01 T00041043  RH  071%=      5-min Rain = 0
KWT1 100330Z 33004KT 00/M04 A3039 RMK A01 T00041042  RH  071%=      5-min Rain = 0
KWT1 100331Z 33004KT 00/M04 A3039 RMK A01 T00041042  RH  071%=      5-min Rain = 0
KWT1 100332Z 33004KT 00/M04 A3039 RMK A01 T00031042  RH  071%=      5-min Rain = 0
KWT1 100333Z 33004KT 00/M04 A3039 RMK A01 T00041042  RH  071%=      5-min Rain = 0
KWT1 100334Z 33004KT 00/M04 A3039 RMK A01 T00041042  RH  071%=      5-min Rain = 0
KWT1 100335Z 33004KT 00/M04 A3039 RMK A01 T00041042  RH  071%=      5-min Rain = 0
KWT1 100336Z 33004KT 00/M04 A3039 RMK A01 T00041042  RH  071%=      5-min Rain = 0
KWT1 100337Z 33004KT 00/M04 A3039 RMK A01 T00041042  RH  071%=      5-min Rain = 0
KWT1 100338Z 33004KT 00/M04 A3039 RMK A01 T00041041  RH  071%=      5-min Rain = 0
KWT1 100339Z 33004KT 00/M04 A3039 RMK A01 T00041041  RH  072%=      5-min Rain = 0
KWT1 100340Z 33005KT 00/M04 A3039 RMK A01 T00041041  RH  072%=      5-min Rain = 0
KWT1 100341Z 33005KT 00/M04 A3039 RMK A01 T00041042  RH  072%=      5-min Rain = 0
KWT1 100342Z 33005KT 00/M04 A3039 RMK A01 T00031041  RH  072%=      5-min Rain = 0
KWT1 100343Z 33005KT 00/M04 A3039 RMK A01 T00031041  RH  072%=      5-min Rain = 0
KWT1 100344Z 33005KT 00/M04 A3039 RMK A01 T00031041  RH  072%=      5-min Rain = 0
KWT1 100345Z 33005KT 00/M04 A3039 RMK A01 T00021041  RH  073%=      5-min Rain = 0
KWT1 100346Z 33005KT 00/M04 A3039 RMK A01 T00021040  RH  073%=      5-min Rain = 0
KWT1 100347Z 33005KT 00/M04 A3039 RMK A01 T00021040  RH  073%=      5-min Rain = 0
KWT1 100348Z 33004KT 00/M04 A3039 RMK A01 T00011040  RH  074%=      5-min Rain = 0
KWT1 100349Z 33004KT 00/M04 A3039 RMK A01 T00011040  RH  074%=      5-min Rain = 0
KWT1 100350Z 33005KT 00/M04 A3039 RMK A01 T00021039  RH  074%=      5-min Rain = 0
KWT1 100351Z 33005KT 00/M04 A3039 RMK A01 T00021039  RH  074%=      5-min Rain = 0
KWT1 100352Z 33005KT 00/M04 A3039 RMK A01 T00011039  RH  074%=      5-min Rain = 0
KWT1 100353Z 33005KT 00/M04 A3039 RMK A01 T00011039  RH  074%=      5-min Rain = 0
KWT1 100354Z 33005KT 00/M04 A3039 RMK A01 T00021039  RH  074%=      5-min Rain = 0
KWT1 100355Z 33004KT 00/M04 A3039 RMK A01 T00021039  RH  074%=      5-min Rain = 0
KWT1 100356Z 33004KT 00/M04 A3039 RMK A01 T00021039  RH  074%=      5-min Rain = 0
KWT1 100357Z 33004KT 00/M04 A3039 RMK A01 T00021039  RH  074%=      5-min Rain = 0
KWT1 100358Z 33004KT 00/M04 A3039 RMK A01 T00021039  RH  074%=      5-min Rain = 0
KWT1 100359Z 33004KT 00/M04 A3039 RMK A01 T00021038  RH  074%=      5-min Rain = 0
KWT1 100400Z 32003KT 00/M04 A3039 RMK A01 T00021038  RH  075%=      5-min Rain = 0
KWT1 100401Z 32003KT 00/M04 A3039 RMK A01 T00021038  RH  075%=      5-min Rain = 0
KWT1 100402Z 32004KT 00/M04 A3039 RMK A01 T00021038  RH  075%=      5-min Rain = 0
KWT1 100403Z 32004KT 00/M04 A3039 RMK A01 T00021038  RH  075%=      5-min Rain = 0
KWT1 100404Z 33004KT 00/M04 A3039 RMK A01 T00021038  RH  075%=      5-min Rain = 0
KWT1 100405Z 33004KT 00/M04 A3039 RMK A01 T00021038  RH  075%=      5-min Rain = 0
KWT1 100406Z 33003KT 00/M04 A3039 RMK A01 T00011038  RH  075%=      5-min Rain = 0
KWT1 100407Z 33003KT 00/M04 A3039 RMK A01 T00011038  RH  075%=      5-min Rain = 0
KWT1 100408Z 33003KT 00/M04 A3039 RMK A01 T00011038  RH  075%=      5-min Rain = 0
KWT1 100409Z 33003KT 00/M04 A3039 RMK A01 T00021038  RH  075%=      5-min Rain = 0
KWT1 100410Z 33003KT 00/M04 A3039 RMK A01 T00021038  RH  075%=      5-min Rain = 0
KWT1 100411Z 33003KT 00/M04 A3039 RMK A01 T00021038  RH  074%=      5-min Rain = 0
KWT1 100412Z 33003KT 00/M04 A3039 RMK A01 T00031038  RH  074%=      5-min Rain = 0
KWT1 100413Z 33003KT 00/M04 A3039 RMK A01 T00031038  RH  074%=      5-min Rain = 0
KWT1 100414Z 33003KT 00/M04 A3039 RMK A01 T00031038  RH  074%=      5-min Rain = 0
KWT1 100415Z 33003KT 00/M04 A3039 RMK A01 T00031038  RH  074%=      5-min Rain = 0
KWT1 100416Z 34003KT 00/M04 A3039 RMK A01 T00031038  RH  074%=      5-min Rain = 0
KWT1 100417Z 34003KT 00/M04 A3039 RMK A01 T00031038  RH  074%=      5-min Rain = 0
KWT1 100418Z 33003KT 00/M04 A3039 RMK A01 T00031038  RH  074%=      5-min Rain = 0
KWT1 100419Z 33003KT 00/M04 A3039 RMK A01 T00021038  RH  074%=      5-min Rain = 0
KWT1 100420Z 32002KT 00/M04 A3039 RMK A01 T00021038  RH  074%=      5-min Rain = 0
KWT1 100421Z 32002KT 00/M04 A3039 RMK A01 T00021038  RH  075%=      5-min Rain = 0
KWT1 100422Z 31002KT 00/M04 A3039 RMK A01 T00011038  RH  075%=      5-min Rain = 0
KWT1 100423Z 30002KT 00/M04 A3039 RMK A01 T00011038  RH  075%=      5-min Rain = 0
KWT1 100424Z 30002KT 00/M04 A3039 RMK A01 T00011038  RH  075%=      5-min Rain = 0
KWT1 100425Z 30002KT 00/M04 A3039 RMK A01 T00011038  RH  075%=      5-min Rain = 0
KWT1 100426Z 30003KT 00/M04 A3039 RMK A01 T00011038  RH  075%=      5-min Rain = 0
KWT1 100427Z 30003KT 00/M04 A3039 RMK A01 T00021038  RH  075%=      5-min Rain = 0
KWT1 100428Z 30003KT 00/M04 A3039 RMK A01 T00021038  RH  074%=      5-min Rain = 0
KWT1 100429Z 31003KT 00/M04 A3039 RMK A01 T00021038  RH  075%=      5-min Rain = 0
KWT1 100430Z 31003KT 00/M04 A3039 RMK A01 T00011038  RH  075%=      5-min Rain = 0
KWT1 100431Z 31004KT 00/M04 A3039 RMK A01 T00011038  RH  075%=      5-min Rain = 0
KWT1 100432Z 30004KT 00/04 A3039 RMK A01 T00000-38  RH  075%=      5-min Rain = 0
KWT1 100433Z 30004KT 00/04 A3039 RMK A01 T00000-37  RH  076%=      5-min Rain = 0
KWT1 100434Z 30004KT 00/04 A3039 RMK A01 T00-00-37  RH  076%=      5-min Rain = 0
KWT1 100435Z 30005KT 00/04 A3039 RMK A01 T00-00-37  RH  076%=      5-min Rain = 0
KWT1 100436Z 31005KT 00/04 A3039 RMK A01 T00-00-36  RH  077%=      5-min Rain = 0
KWT1 100437Z 31005KT M00/M04 A3039 RMK A01 T10011036  RH  077%=      5-min Rain = 0
KWT1 100438Z 31005KT M00/M04 A3039 RMK A01 T10011037  RH  077%=      5-min Rain = 0
KWT1 100439Z 31005KT M00/M04 A3039 RMK A01 T10011037  RH  077%=      5-min Rain = 0
KWT1 100440Z 31005KT M00/M04 A3039 RMK A01 T10011037  RH  076%=      5-min Rain = 0
KWT1 100441Z 31005KT M00/M04 A3039 RMK A01 T10011038  RH  076%=      5-min Rain = 0
KWT1 100442Z 31005KT M00/M04 A3039 RMK A01 T10011038  RH  077%=      5-min Rain = 0
KWT1 100443Z 30005KT M00/M04 A3039 RMK A01 T10011037  RH  077%=      5-min Rain = 0
KWT1 100444Z 30005KT M00/M04 A3039 RMK A01 T10011038  RH  077%=      5-min Rain = 0
KWT1 100445Z 30005KT M00/M04 A3039 RMK A01 T10011038  RH  076%=      5-min Rain = 0
KWT1 100446Z 30005KT 00/04 A3039 RMK A01 T00-00-38  RH  076%=      5-min Rain = 0
KWT1 100447Z 30005KT 00/M04 A3039 RMK A01 T00011037  RH  075%=      5-min Rain = 0
KWT1 100448Z 31005KT 00/M04 A3039 RMK A01 T00011038  RH  075%=      5-min Rain = 0
KWT1 100449Z 31005KT 00/M04 A3039 RMK A01 T00011038  RH  075%=      5-min Rain = 0
KWT1 100450Z 31005KT 00/M04 A3039 RMK A01 T00011038  RH  075%=      5-min Rain = 0
KWT1 100451Z 31005KT 00/M04 A3039 RMK A01 T00021038  RH  075%=      5-min Rain = 0
KWT1 100452Z 31005KT 00/M04 A3039 RMK A01 T00021037  RH  075%=      5-min Rain = 0
KWT1 100453Z 32005KT 00/M04 A3039 RMK A01 T00021037  RH  075%=      5-min Rain = 0
KWT1 100454Z 32005KT 00/M04 A3039 RMK A01 T00021037  RH  075%=      5-min Rain = 0
KWT1 100455Z 32004KT 00/M04 A3039 RMK A01 T00021037  RH  075%=      5-min Rain = 0
KWT1 100456Z 32004KT 00/M04 A3039 RMK A01 T00021037  RH  075%=      5-min Rain = 0
KWT1 100457Z 31004KT 00/M04 A3039 RMK A01 T00031037  RH  074%=      5-min Rain = 0
KWT1 100458Z 31004KT 00/M04 A3039 RMK A01 T00031037  RH  074%=      5-min Rain = 0
KWT1 100459Z 31004KT 00/M04 A3039 RMK A01 T00031038  RH  074%=      5-min Rain = 0
KWT1 100500Z 31004KT 00/M04 A3039 RMK A01 T00031038  RH  074%=      5-min Rain = 0
KWT1 100501Z 30004KT 00/M04 A3039 RMK A01 T00031037  RH  074%=      5-min Rain = 0
KWT1 100502Z 30004KT 00/M04 A3039 RMK A01 T00031037  RH  075%=      5-min Rain = 0
KWT1 100503Z 29003KT 00/M04 A3039 RMK A01 T00021037  RH  075%=      5-min Rain = 0
KWT1 100504Z 29003KT 00/04 A3039 RMK A01 T00-00-39  RH  075%=      5-min Rain = 0
KWT1 100505Z 29003KT M00/M04 A3039 RMK A01 T10011039  RH  076%=      5-min Rain = 0
KWT1 100506Z 30003KT M00/M04 A3039 RMK A01 T10011039  RH  076%=      5-min Rain = 0
KWT1 100507Z 30003KT M00/M04 A3039 RMK A01 T10011039  RH  076%=      5-min Rain = 0
KWT1 100508Z 30003KT M00/M04 A3039 RMK A01 T10011038  RH  076%=      5-min Rain = 0
KWT1 100509Z 30003KT 00/04 A3039 RMK A01 T00-00-37  RH  076%=      5-min Rain = 0
KWT1 100510Z 30003KT 00/M04 A3039 RMK A01 T00011037  RH  076%=      5-min Rain = 0
KWT1 100511Z 30004KT 00/M04 A3039 RMK A01 T00011036  RH  076%=      5-min Rain = 0
KWT1 100512Z 29004KT 00/M04 A3038 RMK A01 T00021036  RH  076%=      5-min Rain = 0
KWT1 100513Z 29004KT 00/M04 A3038 RMK A01 T00021036  RH  076%=      5-min Rain = 0
KWT1 100514Z 29004KT 00/M04 A3038 RMK A01 T00021036  RH  076%=      5-min Rain = 0
KWT1 100515Z 29004KT 00/M04 A3038 RMK A01 T00021036  RH  076%=      5-min Rain = 0
KWT1 100516Z 29005KT 00/M04 A3039 RMK A01 T00011035  RH  076%=      5-min Rain = 0
KWT1 100517Z 29005KT 00/M04 A3039 RMK A01 T00021035  RH  076%=      5-min Rain = 0
KWT1 100518Z 29004KT 00/M03 A3039 RMK A01 T00031034  RH  076%=      5-min Rain = 0
KWT1 100519Z 29004KT 00/M03 A3039 RMK A01 T00031034  RH  076%=      5-min Rain = 0
KWT1 100520Z 30005KT 00/M04 A3039 RMK A01 T00031035  RH  076%=      5-min Rain = 0
KWT1 100521Z 30005KT 00/M04 A3039 RMK A01 T00031036  RH  075%=      5-min Rain = 0
KWT1 100522Z 31005KT 00/M04 A3039 RMK A01 T00031037  RH  075%=      5-min Rain = 0
KWT1 100523Z 31005KT 00/M04 A3039 RMK A01 T00021037  RH  075%=      5-min Rain = 0
KWT1 100524Z 31005KT 00/M04 A3039 RMK A01 T00021037  RH  075%=      5-min Rain = 0
KWT1 100525Z 31005KT 00/M04 A3039 RMK A01 T00021037  RH  075%=      5-min Rain = 0
KWT1 100526Z 31005KT 00/M04 A3039 RMK A01 T00021037  RH  075%=      5-min Rain = 0
KWT1 100527Z 30005KT 00/M04 A3039 RMK A01 T00031036  RH  075%=      5-min Rain = 0
KWT1 100528Z 30004KT 00/M04 A3039 RMK A01 T00041036  RH  075%=      5-min Rain = 0
KWT1 100529Z 29004KT 01/M04 A3039 RMK A01 T00051035  RH  075%=      5-min Rain = 0
KWT1 100530Z 29004KT 01/M03 A3039 RMK A01 T00051034  RH  075%=      5-min Rain = 0
KWT1 100531Z 29004KT 01/M03 A3039 RMK A01 T00051033  RH  075%=      5-min Rain = 0
KWT1 100532Z 29004KT 00/M03 A3039 RMK A01 T00041033  RH  076%=      5-min Rain = 0
KWT1 100533Z 30004KT 00/M03 A3039 RMK A01 T00031034  RH  076%=      5-min Rain = 0
KWT1 100534Z 31005KT 00/M03 A3039 RMK A01 T00041034  RH  075%=      5-min Rain = 0
KWT1 100535Z 31004KT 00/M04 A3039 RMK A01 T00041035  RH  075%=      5-min Rain = 0
KWT1 100536Z 31004KT 01/M04 A3039 RMK A01 T00051035  RH  075%=      5-min Rain = 0
KWT1 100537Z 31005KT 01/M04 A3039 RMK A01 T00051035  RH  075%=      5-min Rain = 0
KWT1 100538Z 30004KT 00/M04 A3039 RMK A01 T00041036  RH  075%=      5-min Rain = 0
KWT1 100539Z 30004KT 00/M04 A3039 RMK A01 T00031037  RH  075%=      5-min Rain = 0
KWT1 100540Z 30004KT 00/M04 A3039 RMK A01 T00021036  RH  075%=      5-min Rain = 0
KWT1 100541Z 30004KT 00/M04 A3039 RMK A01 T00031036  RH  076%=      5-min Rain = 0
KWT1 100542Z 31005KT 00/M04 A3039 RMK A01 T00041035  RH  075%=      5-min Rain = 0
KWT1 100543Z 31004KT 01/M03 A3039 RMK A01 T00051034  RH  075%=      5-min Rain = 0
KWT1 100544Z 31004KT 01/M03 A3039 RMK A01 T00061034  RH  075%=      5-min Rain = 0
KWT1 100545Z 31004KT 01/M03 A3039 RMK A01 T00051034  RH  075%=      5-min Rain = 0
KWT1 100546Z 31004KT 01/M03 A3039 RMK A01 T00051034  RH  075%=      5-min Rain = 0
KWT1 100547Z 31004KT 01/M03 A3039 RMK A01 T00051034  RH  075%=      5-min Rain = 0
KWT1 100548Z 31004KT 00/M04 A3039 RMK A01 T00041035  RH  075%=      5-min Rain = 0
KWT1 100549Z 31004KT 00/M04 A3039 RMK A01 T00031035  RH  075%=      5-min Rain = 0
KWT1 100550Z 31004KT 00/M04 A3039 RMK A01 T00021036  RH  076%=      5-min Rain = 0
KWT1 100551Z 31004KT 00/M04 A3039 RMK A01 T00011036  RH  076%=      5-min Rain = 0
KWT1 100552Z 31004KT 00/04 A3039 RMK A01 T00000-36  RH  077%=      5-min Rain = 0
KWT1 100553Z 31004KT M00/M04 A3039 RMK A01 T10011035  RH  077%=      5-min Rain = 0
KWT1 100554Z 31004KT M00/M04 A3039 RMK A01 T10031037  RH  078%=      5-min Rain = 0
KWT1 100555Z 31004KT M01/M04 A3039 RMK A01 T10061039  RH  079%=      5-min Rain = 0
KWT1 100556Z 31004KT M01/M04 A3039 RMK A01 T10081038  RH  080%=      5-min Rain = 0
KWT1 100557Z 31004KT M01/M04 A3039 RMK A01 T10081037  RH  081%=      5-min Rain = 0
KWT1 100558Z 32004KT M01/M04 A3039 RMK A01 T10081037  RH  081%=      5-min Rain = 0
KWT1 100559Z 32004KT M01/M04 A3039 RMK A01 T10091037  RH  081%=      5-min Rain = 0

Page generated in 0.1493 seconds.